Time,TemperatureF,DewpointF,PressureIn,WindDirection,WindDirectionDegrees,WindSpeedMPH,WindSpeedGustMPH,Humidity,HourlyPrecipIn,Conditions,Clouds,dailyrainin,SoftwareType,DateUTC
2013-04-02 00:00:00,36.7,-4.0,29.77,WNW,301,3.6,4.0,17,0.00,,,0.00,VWS V14.01,2013-04-02 04:00:00,
2013-04-02 00:02:00,36.7,-4.0,29.77,NW,307,2.7,2.7,17,0.00,,,0.00,VWS V14.01,2013-04-02 04:02:00,
2013-04-02 00:06:00,36.7,-4.0,29.77,WSW,237,0.0,0.0,17,0.00,,,0.00,VWS V14.01,2013-04-02 04:06:00,
2013-04-02 00:07:00,36.7,-4.0,29.77,WSW,237,0.0,0.0,17,0.00,,,0.00,VWS V14.01,2013-04-02 04:07:00,
2013-04-02 00:08:00,36.7,-4.0,29.77,WSW,247,2.7,2.7,17,0.00,,,0.00,VWS V14.01,2013-04-02 04:08:00,
2013-04-02 00:12:00,36.5,-4.2,29.77,West,263,0.0,0.0,17,0.00,,,0.00,VWS V14.01,2013-04-02 04:12:00,
2013-04-02 00:13:00,36.5,-4.2,29.77,West,281,0.0,0.0,17,0.00,,,0.00,VWS V14.01,2013-04-02 04:13:00,
2013-04-02 00:18:00,36.1,-4.5,29.77,West,266,0.0,0.0,17,0.00,,,0.00,VWS V14.01,2013-04-02 04:18:00,
2013-04-02 00:19:00,36.1,-4.5,29.77,West,278,0.0,0.0,17,0.00,,,0.00,VWS V14.01,2013-04-02 04:19:00,
2013-04-02 00:22:00,36.0,-4.6,29.80,WNW,289,0.0,0.0,17,0.00,,,0.00,VWS V14.01,2013-04-02 04:22:00,
2013-04-02 00:23:00,36.0,-4.6,29.80,WNW,289,0.0,0.0,17,0.00,,,0.00,VWS V14.01,2013-04-02 04:23:00,
2013-04-02 00:24:00,35.8,-4.8,29.80,WNW,289,0.0,0.0,17,0.00,,,0.00,VWS V14.01,2013-04-02 04:24:00,
2013-04-02 00:27:00,35.8,-4.8,29.80,WNW,289,0.0,0.0,17,0.00,,,0.00,VWS V14.01,2013-04-02 04:27:00,
2013-04-02 00:29:00,35.6,-4.9,29.80,WNW,289,0.0,0.0,17,0.00,,,0.00,VWS V14.01,2013-04-02 04:29:00,
2013-04-02 00:31:00,35.4,-5.1,29.80,WNW,289,0.0,0.0,17,0.00,,,0.00,VWS V14.01,2013-04-02 04:31:00,
2013-04-02 00:33:00,35.4,-5.1,29.80,WNW,289,0.0,0.0,17,0.00,,,0.00,VWS V14.01,2013-04-02 04:33:00,
2013-04-02 00:34:00,35.2,-5.2,29.80,WNW,289,0.0,0.0,17,0.00,,,0.00,VWS V14.01,2013-04-02 04:34:00,
2013-04-02 00:35:00,35.1,-5.3,29.80,WNW,289,0.0,0.0,17,0.00,,,0.00,VWS V14.01,2013-04-02 04:35:00,
2013-04-02 00:37:00,34.9,-5.5,29.80,WNW,289,0.0,0.0,17,0.00,,,0.00,VWS V14.01,2013-04-02 04:37:00,
2013-04-02 00:38:00,34.9,-5.5,29.80,WNW,289,0.0,0.0,17,0.00,,,0.00,VWS V14.01,2013-04-02 04:38:00,
2013-04-02 00:39:00,34.7,-5.6,29.80,WNW,289,0.0,0.0,17,0.00,,,0.00,VWS V14.01,2013-04-02 04:39:00,
2013-04-02 00:42:00,34.5,-5.8,29.80,WNW,289,0.0,0.0,17,0.00,,,0.00,VWS V14.01,2013-04-02 04:42:00,
2013-04-02 00:43:00,34.3,-5.9,29.80,WNW,289,0.0,0.0,17,0.00,,,0.00,VWS V14.01,2013-04-02 04:43:00,
2013-04-02 00:45:00,34.3,-5.9,29.80,WNW,289,0.0,0.0,17,0.00,,,0.00,VWS V14.01,2013-04-02 04:45:00,
2013-04-02 00:47:00,34.2,-6.1,29.80,WNW,288,0.0,0.0,17,0.00,,,0.00,VWS V14.01,2013-04-02 04:47:00,
2013-04-02 00:48:00,34.0,-6.2,29.80,WNW,289,0.0,0.0,17,0.00,,,0.00,VWS V14.01,2013-04-02 04:48:00,
2013-04-02 00:50:00,34.0,-6.2,29.80,WNW,289,0.0,0.0,17,0.00,,,0.00,VWS V14.01,2013-04-02 04:50:00,
2013-04-02 00:51:00,34.0,-6.2,29.80,WNW,289,0.0,0.0,17,0.00,,,0.00,VWS V14.01,2013-04-02 04:51:00,
2013-04-02 00:53:00,33.8,-6.4,29.80,West,281,0.0,0.0,17,0.00,,,0.00,VWS V14.01,2013-04-02 04:53:00,
2013-04-02 00:54:00,33.8,-6.4,29.80,West,280,0.0,0.0,17,0.00,,,0.00,VWS V14.01,2013-04-02 04:54:00,
2013-04-02 00:57:00,33.8,-6.4,29.80,West,280,0.0,0.0,17,0.00,,,0.00,VWS V14.01,2013-04-02 04:57:00,
2013-04-02 00:59:00,33.8,-6.4,29.80,West,280,0.0,0.0,17,0.00,,,0.00,VWS V14.01,2013-04-02 04:59:00,
2013-04-02 01:02:00,33.6,-5.3,29.80,West,280,0.0,0.0,18,0.00,,,0.00,VWS V14.01,2013-04-02 05:02:00,
2013-04-02 01:04:00,33.6,-5.3,29.80,West,280,0.0,0.0,18,0.00,,,0.00,VWS V14.01,2013-04-02 05:04:00,
2013-04-02 01:05:00,33.6,-5.3,29.80,West,280,0.0,0.0,18,0.00,,,0.00,VWS V14.01,2013-04-02 05:05:00,
2013-04-02 01:08:00,33.4,-5.5,29.80,West,280,0.0,0.0,18,0.00,,,0.00,VWS V14.01,2013-04-02 05:08:00,
2013-04-02 01:09:00,33.3,-5.7,29.80,West,280,0.0,0.0,18,0.00,,,0.00,VWS V14.01,2013-04-02 05:09:00,
2013-04-02 01:12:00,33.3,-5.7,29.80,West,281,0.0,0.0,18,0.00,,,0.00,VWS V14.01,2013-04-02 05:12:00,
2013-04-02 01:13:00,33.3,-5.7,29.80,West,280,0.0,0.0,18,0.00,,,0.00,VWS V14.01,2013-04-02 05:13:00,
2013-04-02 01:14:00,33.1,-5.8,29.80,West,281,0.0,0.0,18,0.00,,,0.00,VWS V14.01,2013-04-02 05:14:00,
2013-04-02 01:18:00,32.9,-5.9,29.80,West,280,0.0,0.0,18,0.00,,,0.00,VWS V14.01,2013-04-02 05:18:00,
2013-04-02 01:19:00,32.9,-5.9,29.80,West,280,0.0,0.0,18,0.00,,,0.00,VWS V14.01,2013-04-02 05:19:00,
2013-04-02 01:23:00,32.7,-6.1,29.80,West,280,0.0,0.0,18,0.00,,,0.00,VWS V14.01,2013-04-02 05:23:00,
2013-04-02 01:24:00,32.5,-6.2,29.80,West,280,0.0,0.0,18,0.00,,,0.00,VWS V14.01,2013-04-02 05:24:00,
2013-04-02 01:25:00,32.5,-6.2,29.80,West,280,0.0,0.0,18,0.00,,,0.00,VWS V14.01,2013-04-02 05:25:00,
2013-04-02 01:27:00,32.5,-6.2,29.80,West,281,0.0,0.0,18,0.00,,,0.00,VWS V14.01,2013-04-02 05:27:00,
2013-04-02 01:30:00,32.5,-6.2,29.80,West,280,0.0,0.0,18,0.00,,,0.00,VWS V14.01,2013-04-02 05:30:00,
2013-04-02 01:33:00,32.4,-6.4,29.80,West,280,0.0,0.0,18,0.00,,,0.00,VWS V14.01,2013-04-02 05:33:00,
2013-04-02 01:35:00,32.4,-6.4,29.80,West,281,0.0,0.0,18,0.00,,,0.00,VWS V14.01,2013-04-02 05:35:00,
2013-04-02 01:36:00,32.4,-6.4,29.80,West,280,0.0,0.0,18,0.00,,,0.00,VWS V14.01,2013-04-02 05:36:00,
2013-04-02 01:38:00,32.2,-6.6,29.80,West,281,0.0,0.0,18,0.00,,,0.00,VWS V14.01,2013-04-02 05:38:00,
2013-04-02 01:40:00,32.2,-6.6,29.80,West,280,0.0,0.0,18,0.00,,,0.00,VWS V14.01,2013-04-02 05:40:00,
2013-04-02 01:43:00,32.0,-6.7,29.80,West,281,0.0,0.0,18,0.00,,,0.00,VWS V14.01,2013-04-02 05:43:00,
2013-04-02 01:44:00,32.0,-6.7,29.80,West,281,0.0,0.0,18,0.00,,,0.00,VWS V14.01,2013-04-02 05:44:00,
2013-04-02 01:47:00,31.6,-7.0,29.80,West,280,0.0,0.0,18,0.00,,,0.00,VWS V14.01,2013-04-02 05:47:00,
2013-04-02 01:49:00,31.6,-7.0,29.80,West,281,0.0,0.0,18,0.00,,,0.00,VWS V14.01,2013-04-02 05:49:00,
2013-04-02 01:50:00,31.6,-7.0,29.80,West,280,0.0,0.0,18,0.00,,,0.00,VWS V14.01,2013-04-02 05:50:00,
2013-04-02 01:51:00,31.6,-7.0,29.80,West,280,0.0,0.0,18,0.00,,,0.00,VWS V14.01,2013-04-02 05:51:00,
2013-04-02 01:53:00,31.5,-7.2,29.80,West,281,0.0,0.0,18,0.00,,,0.00,VWS V14.01,2013-04-02 05:53:00,
2013-04-02 01:55:00,31.5,-7.2,29.80,West,281,0.0,0.0,18,0.00,,,0.00,VWS V14.01,2013-04-02 05:55:00,
2013-04-02 01:57:00,31.8,-6.8,29.80,West,279,0.0,0.0,18,0.00,,,0.00,VWS V14.01,2013-04-02 05:57:00,
2013-04-02 01:59:00,31.8,-6.8,29.80,West,271,0.0,0.0,18,0.00,,,0.00,VWS V14.01,2013-04-02 05:59:00,
2013-04-02 02:00:00,32.0,-6.7,29.80,West,271,0.0,0.0,18,0.00,,,0.00,VWS V14.01,2013-04-02 06:00:00,
2013-04-02 02:01:00,32.2,-6.6,29.80,West,271,0.0,0.0,18,0.00,,,0.00,VWS V14.01,2013-04-02 06:01:00,
2013-04-02 02:03:00,32.2,-6.6,29.80,West,271,0.0,0.0,18,0.00,,,0.00,VWS V14.01,2013-04-02 06:03:00,
2013-04-02 02:04:00,32.2,-6.6,29.80,West,271,0.0,0.0,18,0.00,,,0.00,VWS V14.01,2013-04-02 06:04:00,
2013-04-02 02:05:00,32.4,-6.4,29.80,West,271,0.0,0.0,18,0.00,,,0.00,VWS V14.01,2013-04-02 06:05:00,
2013-04-02 02:06:00,32.4,-6.4,29.80,West,271,0.0,0.0,18,0.00,,,0.00,VWS V14.01,2013-04-02 06:06:00,
2013-04-02 02:09:00,32.4,-6.4,29.80,West,270,0.0,0.0,18,0.00,,,0.00,VWS V14.01,2013-04-02 06:09:00,
2013-04-02 02:10:00,32.4,-6.4,29.80,West,270,0.0,0.0,18,0.00,,,0.00,VWS V14.01,2013-04-02 06:10:00,
2013-04-02 02:12:00,32.4,-6.4,29.80,West,270,0.0,0.0,18,0.00,,,0.00,VWS V14.01,2013-04-02 06:12:00,
2013-04-02 02:13:00,32.2,-6.6,29.80,West,270,0.0,0.0,18,0.00,,,0.00,VWS V14.01,2013-04-02 06:13:00,
2013-04-02 02:17:00,32.2,-6.6,29.80,West,275,0.0,0.0,18,0.00,,,0.00,VWS V14.01,2013-04-02 06:17:00,
2013-04-02 02:18:00,32.2,-6.6,29.80,West,275,0.0,0.0,18,0.00,,,0.00,VWS V14.01,2013-04-02 06:18:00,
2013-04-02 02:42:00,32.4,-6.4,29.80,West,261,3.1,3.1,18,0.00,,,0.00,VWS V14.01,2013-04-02 06:42:00,
2013-04-02 02:43:00,32.4,-6.4,29.80,West,264,3.6,4.0,18,0.00,,,0.00,VWS V14.01,2013-04-02 06:43:00,
2013-04-02 02:47:00,32.5,-6.2,29.80,West,264,2.2,3.1,18,0.00,,,0.00,VWS V14.01,2013-04-02 06:47:00,
2013-04-02 02:48:00,32.5,-6.2,29.80,West,263,3.1,3.1,18,0.00,,,0.00,VWS V14.01,2013-04-02 06:48:00,
2013-04-02 02:49:00,32.5,-6.2,29.80,West,261,2.7,3.1,18,0.00,,,0.00,VWS V14.01,2013-04-02 06:49:00,
2013-04-02 02:54:00,32.9,-5.9,29.80,West,278,3.1,5.8,18,0.00,,,0.00,VWS V14.01,2013-04-02 06:54:00,
2013-04-02 02:55:00,32.9,-5.9,29.80,West,261,4.0,4.0,18,0.00,,,0.00,VWS V14.01,2013-04-02 06:55:00,
2013-04-02 02:56:00,32.9,-5.9,29.80,WNW,287,2.7,4.0,18,0.00,,,0.00,VWS V14.01,2013-04-02 06:56:00,
2013-04-02 02:59:00,33.1,-5.8,29.80,WSW,256,3.6,3.6,18,0.00,,,0.00,VWS V14.01,2013-04-02 06:59:00,
2013-04-02 03:01:00,33.3,-5.7,29.80,West,274,2.7,2.7,18,0.00,,,0.00,VWS V14.01,2013-04-02 07:01:00,
2013-04-02 03:02:00,33.3,-5.7,29.80,WSW,253,4.0,4.0,18,0.00,,,0.00,VWS V14.01,2013-04-02 07:02:00,
2013-04-02 03:03:00,33.3,-5.7,29.80,West,266,4.9,4.9,18,0.00,,,0.00,VWS V14.01,2013-04-02 07:03:00,
2013-04-02 03:05:00,33.4,-5.5,29.80,West,270,3.6,3.6,18,0.00,,,0.00,VWS V14.01,2013-04-02 07:05:00,
2013-04-02 03:07:00,33.4,-5.5,29.80,WSW,249,5.4,5.4,18,0.00,,,0.00,VWS V14.01,2013-04-02 07:07:00,
2013-04-02 03:08:00,33.4,-5.5,29.80,WNW,284,3.1,5.4,18,0.00,,,0.00,VWS V14.01,2013-04-02 07:08:00,
2013-04-02 03:09:00,33.6,-5.3,29.80,West,262,2.7,4.9,18,0.00,,,0.00,VWS V14.01,2013-04-02 07:09:00,
2013-04-02 03:10:00,33.6,-5.3,29.80,West,260,2.7,3.1,18,0.00,,,0.00,VWS V14.01,2013-04-02 07:10:00,
2013-04-02 03:14:00,33.6,-5.3,29.80,West,263,0.0,2.7,18,0.00,,,0.00,VWS V14.01,2013-04-02 07:14:00,
2013-04-02 03:15:00,33.6,-5.3,29.80,WSW,250,0.0,0.0,18,0.00,,,0.00,VWS V14.01,2013-04-02 07:15:00,
2013-04-02 03:17:00,33.6,-5.3,29.80,West,271,3.1,3.1,18,0.00,,,0.00,VWS V14.01,2013-04-02 07:17:00,
2013-04-02 03:19:00,33.6,-5.3,29.80,West,264,0.0,3.1,18,0.00,,,0.00,VWS V14.01,2013-04-02 07:19:00,
2013-04-02 03:21:00,33.6,-5.3,29.80,West,270,2.2,4.0,18,0.00,,,0.00,VWS V14.01,2013-04-02 07:21:00,
2013-04-02 03:22:00,33.6,-5.3,29.80,WSW,252,3.1,3.1,18,0.00,,,0.00,VWS V14.01,2013-04-02 07:22:00,
2013-04-02 03:25:00,33.6,-5.3,29.80,West,262,2.2,2.2,18,0.00,,,0.00,VWS V14.01,2013-04-02 07:25:00,
2013-04-02 03:27:00,33.6,-5.3,29.80,WSW,242,3.1,3.1,18,0.00,,,0.00,VWS V14.01,2013-04-02 07:27:00,
2013-04-02 03:29:00,33.6,-5.3,29.80,WSW,254,2.2,4.0,18,0.00,,,0.00,VWS V14.01,2013-04-02 07:29:00,
2013-04-02 03:32:00,33.6,-5.3,29.80,West,266,2.7,2.7,18,0.00,,,0.00,VWS V14.01,2013-04-02 07:32:00,
2013-04-02 03:33:00,33.6,-5.3,29.80,WSW,253,2.2,3.1,18,0.00,,,0.00,VWS V14.01,2013-04-02 07:33:00,
2013-04-02 03:34:00,33.6,-5.3,29.80,WSW,253,2.2,2.7,18,0.00,,,0.00,VWS V14.01,2013-04-02 07:34:00,
2013-04-02 03:36:00,33.6,-5.3,29.80,WSW,240,3.1,3.1,18,0.00,,,0.00,VWS V14.01,2013-04-02 07:36:00,
2013-04-02 03:39:00,33.6,-5.3,29.80,West,265,2.2,2.7,18,0.00,,,0.00,VWS V14.01,2013-04-02 07:39:00,
2013-04-02 03:41:00,33.6,-5.3,29.80,West,267,0.0,0.0,18,0.00,,,0.00,VWS V14.01,2013-04-02 07:41:00,
2013-04-02 03:42:00,33.4,-5.5,29.80,West,262,0.0,0.0,18,0.00,,,0.00,VWS V14.01,2013-04-02 07:42:00,
2013-04-02 03:44:00,33.3,-5.7,29.80,WNW,284,2.7,2.7,18,0.00,,,0.00,VWS V14.01,2013-04-02 07:44:00,
2013-04-02 03:46:00,33.3,-5.7,29.80,West,277,0.0,0.0,18,0.00,,,0.00,VWS V14.01,2013-04-02 07:46:00,
2013-04-02 03:49:00,33.3,-5.7,29.80,West,276,0.0,0.0,18,0.00,,,0.00,VWS V14.01,2013-04-02 07:49:00,
2013-04-02 03:50:00,33.1,-5.8,29.80,West,276,0.0,0.0,18,0.00,,,0.00,VWS V14.01,2013-04-02 07:50:00,
2013-04-02 03:52:00,33.1,-5.8,29.80,West,276,0.0,0.0,18,0.00,,,0.00,VWS V14.01,2013-04-02 07:52:00,
2013-04-02 03:53:00,33.1,-5.8,29.80,West,276,0.0,0.0,18,0.00,,,0.00,VWS V14.01,2013-04-02 07:53:00,
2013-04-02 03:55:00,33.1,-5.8,29.80,West,276,0.0,0.0,18,0.00,,,0.00,VWS V14.01,2013-04-02 07:55:00,
2013-04-02 03:57:00,33.1,-5.8,29.80,West,276,0.0,0.0,18,0.00,,,0.00,VWS V14.01,2013-04-02 07:57:00,
2013-04-02 03:58:00,32.9,-5.9,29.80,West,276,0.0,0.0,18,0.00,,,0.00,VWS V14.01,2013-04-02 07:58:00,
2013-04-02 04:02:00,32.7,-6.1,29.80,West,276,0.0,0.0,18,0.00,,,0.00,VWS V14.01,2013-04-02 08:02:00,
2013-04-02 04:03:00,32.7,-6.1,29.80,West,276,0.0,0.0,18,0.00,,,0.00,VWS V14.01,2013-04-02 08:03:00,
2013-04-02 04:04:00,32.7,-6.1,29.80,WSW,255,2.7,2.7,18,0.00,,,0.00,VWS V14.01,2013-04-02 08:04:00,
2013-04-02 04:07:00,32.7,-6.1,29.80,WSW,255,0.0,0.0,18,0.00,,,0.00,VWS V14.01,2013-04-02 08:07:00,
2013-04-02 04:09:00,32.7,-6.1,29.80,WSW,255,0.0,0.0,18,0.00,,,0.00,VWS V14.01,2013-04-02 08:09:00,
2013-04-02 04:10:00,32.7,-6.1,29.80,WSW,255,0.0,0.0,18,0.00,,,0.00,VWS V14.01,2013-04-02 08:10:00,
2013-04-02 04:13:00,32.7,-6.1,29.80,WSW,256,0.0,0.0,18,0.00,,,0.00,VWS V14.01,2013-04-02 08:13:00,
2013-04-02 04:15:00,32.7,-6.1,29.80,West,263,3.1,3.1,18,0.00,,,0.00,VWS V14.01,2013-04-02 08:15:00,
2013-04-02 04:16:00,32.7,-6.1,29.80,West,261,0.0,0.0,18,0.00,,,0.00,VWS V14.01,2013-04-02 08:16:00,
2013-04-02 04:19:00,32.7,-6.1,29.80,West,277,3.1,3.6,18,0.00,,,0.00,VWS V14.01,2013-04-02 08:19:00,
2013-04-02 04:20:00,32.7,-6.1,29.80,West,277,0.0,3.6,18,0.00,,,0.00,VWS V14.01,2013-04-02 08:20:00,
2013-04-02 04:24:00,32.5,-6.2,29.80,West,266,3.6,3.6,18,0.00,,,0.00,VWS V14.01,2013-04-02 08:24:00,
2013-04-02 04:25:00,32.5,-6.2,29.80,West,266,2.2,3.1,18,0.00,,,0.00,VWS V14.01,2013-04-02 08:25:00,
2013-04-02 04:26:00,32.5,-6.2,29.80,West,266,2.2,3.1,18,0.00,,,0.00,VWS V14.01,2013-04-02 08:26:00,
2013-04-02 04:27:00,32.5,-6.2,29.80,West,266,0.0,0.0,18,0.00,,,0.00,VWS V14.01,2013-04-02 08:27:00,
2013-04-02 04:30:00,32.5,-6.2,29.80,West,268,2.2,2.7,18,0.00,,,0.00,VWS V14.01,2013-04-02 08:30:00,
2013-04-02 04:33:00,32.4,-6.4,29.80,West,272,2.2,2.2,18,0.00,,,0.00,VWS V14.01,2013-04-02 08:33:00,
2013-04-02 04:35:00,32.4,-6.4,29.80,West,277,3.1,3.1,18,0.00,,,0.00,VWS V14.01,2013-04-02 08:35:00,
2013-04-02 04:37:00,32.2,-6.6,29.80,West,266,0.0,0.0,18,0.00,,,0.00,VWS V14.01,2013-04-02 08:37:00,
2013-04-02 04:38:00,32.2,-6.6,29.80,West,266,0.0,0.0,18,0.00,,,0.00,VWS V14.01,2013-04-02 08:38:00,
2013-04-02 04:40:00,32.2,-6.6,29.80,West,259,3.1,3.1,18,0.00,,,0.00,VWS V14.01,2013-04-02 08:40:00,
2013-04-02 04:43:00,32.0,-6.7,29.80,WSW,246,0.0,2.7,18,0.00,,,0.00,VWS V14.01,2013-04-02 08:43:00,
2013-04-02 04:45:00,32.0,-6.7,29.80,West,259,0.0,3.1,18,0.00,,,0.00,VWS V14.01,2013-04-02 08:45:00,
2013-04-02 04:48:00,32.0,-6.7,29.80,West,280,0.0,0.0,18,0.00,,,0.00,VWS V14.01,2013-04-02 08:48:00,
2013-04-02 04:49:00,32.0,-6.7,29.80,West,280,0.0,0.0,18,0.00,,,0.00,VWS V14.01,2013-04-02 08:49:00,
2013-04-02 04:50:00,32.0,-6.7,29.80,West,259,0.0,2.7,18,0.00,,,0.00,VWS V14.01,2013-04-02 08:50:00,
2013-04-02 04:51:00,31.8,-6.8,29.80,West,260,0.0,0.0,18,0.00,,,0.00,VWS V14.01,2013-04-02 08:51:00,
2013-04-02 04:53:00,31.8,-6.8,29.80,West,260,0.0,0.0,18,0.00,,,0.00,VWS V14.01,2013-04-02 08:53:00,
2013-04-02 04:56:00,31.5,-7.2,29.80,West,261,0.0,0.0,18,0.00,,,0.00,VWS V14.01,2013-04-02 08:56:00,
2013-04-02 04:57:00,31.5,-7.2,29.80,West,261,0.0,0.0,18,0.00,,,0.00,VWS V14.01,2013-04-02 08:57:00,
2013-04-02 04:58:00,31.3,-7.3,29.80,West,261,0.0,0.0,18,0.00,,,0.00,VWS V14.01,2013-04-02 08:58:00,
2013-04-02 04:59:00,31.3,-7.3,29.80,West,261,0.0,0.0,18,0.00,,,0.00,VWS V14.01,2013-04-02 08:59:00,
2013-04-02 05:02:00,31.1,-7.4,29.80,West,261,0.0,0.0,18,0.00,,,0.00,VWS V14.01,2013-04-02 09:02:00,
2013-04-02 05:03:00,30.9,-7.6,29.80,West,261,0.0,0.0,18,0.00,,,0.00,VWS V14.01,2013-04-02 09:03:00,
2013-04-02 05:04:00,30.7,-7.7,29.80,West,261,0.0,0.0,18,0.00,,,0.00,VWS V14.01,2013-04-02 09:04:00,
2013-04-02 05:07:00,30.4,-8.0,29.80,West,261,0.0,0.0,18,0.00,,,0.00,VWS V14.01,2013-04-02 09:07:00,
2013-04-02 05:09:00,30.2,-8.2,29.80,West,261,0.0,0.0,18,0.00,,,0.00,VWS V14.01,2013-04-02 09:09:00,
2013-04-02 05:11:00,30.0,-8.3,29.80,West,263,0.0,0.0,18,0.00,,,0.00,VWS V14.01,2013-04-02 09:11:00,
2013-04-02 05:12:00,30.0,-8.3,29.80,West,263,0.0,0.0,18,0.00,,,0.00,VWS V14.01,2013-04-02 09:12:00,
2013-04-02 05:14:00,29.8,-8.5,29.80,West,264,0.0,0.0,18,0.00,,,0.00,VWS V14.01,2013-04-02 09:14:00,
2013-04-02 05:15:00,29.8,-8.5,29.80,West,264,0.0,0.0,18,0.00,,,0.00,VWS V14.01,2013-04-02 09:15:00,
2013-04-02 05:17:00,29.8,-8.5,29.80,West,264,0.0,0.0,18,0.00,,,0.00,VWS V14.01,2013-04-02 09:17:00,
2013-04-02 05:19:00,29.8,-8.5,29.80,West,267,2.7,3.1,18,0.00,,,0.00,VWS V14.01,2013-04-02 09:19:00,
2013-04-02 05:20:00,29.8,-8.5,29.80,West,271,2.7,3.1,18,0.00,,,0.00,VWS V14.01,2013-04-02 09:20:00,
2013-04-02 05:22:00,30.0,-8.3,29.80,West,280,0.0,2.2,18,0.00,,,0.00,VWS V14.01,2013-04-02 09:22:00,
2013-04-02 05:25:00,30.2,-8.2,29.80,WSW,255,3.1,4.0,18,0.00,,,0.00,VWS V14.01,2013-04-02 09:25:00,
2013-04-02 05:26:00,30.4,-8.0,29.80,West,277,2.7,4.0,18,0.00,,,0.00,VWS V14.01,2013-04-02 09:26:00,
2013-04-02 05:28:00,30.6,-7.9,29.80,West,265,4.9,5.4,18,0.00,,,0.00,VWS V14.01,2013-04-02 09:28:00,
2013-04-02 05:31:00,30.9,-7.6,29.80,WNW,299,3.6,3.6,18,0.00,,,0.00,VWS V14.01,2013-04-02 09:31:00,
2013-04-02 05:32:00,31.1,-7.4,29.80,WSW,246,5.4,5.4,18,0.00,,,0.00,VWS V14.01,2013-04-02 09:32:00,
2013-04-02 05:35:00,31.3,-7.3,29.80,West,281,3.1,3.1,18,0.00,,,0.00,VWS V14.01,2013-04-02 09:35:00,
2013-04-02 05:36:00,31.5,-7.2,29.80,WSW,254,2.2,4.0,18,0.00,,,0.00,VWS V14.01,2013-04-02 09:36:00,
2013-04-02 05:37:00,31.5,-7.2,29.83,West,267,2.7,4.0,18,0.00,,,0.00,VWS V14.01,2013-04-02 09:37:00,
2013-04-02 05:40:00,31.6,-7.0,29.83,West,278,2.2,2.2,18,0.00,,,0.00,VWS V14.01,2013-04-02 09:40:00,
2013-04-02 05:41:00,31.6,-7.0,29.83,WNW,283,2.7,2.7,18,0.00,,,0.00,VWS V14.01,2013-04-02 09:41:00,
2013-04-02 05:43:00,31.6,-7.0,29.83,WSW,253,3.1,3.1,18,0.00,,,0.00,VWS V14.01,2013-04-02 09:43:00,
2013-04-02 05:45:00,31.6,-7.0,29.83,West,271,2.2,3.6,18,0.00,,,0.00,VWS V14.01,2013-04-02 09:45:00,
2013-04-02 05:47:00,31.6,-7.0,29.83,West,278,2.2,3.1,18,0.00,,,0.00,VWS V14.01,2013-04-02 09:47:00,
2013-04-02 05:48:00,31.6,-7.0,29.83,WSW,247,0.0,0.0,18,0.00,,,0.00,VWS V14.01,2013-04-02 09:48:00,
2013-04-02 05:50:00,31.6,-7.0,29.83,West,267,2.2,2.7,18,0.00,,,0.00,VWS V14.01,2013-04-02 09:50:00,
2013-04-02 05:53:00,31.5,-7.2,29.83,West,263,3.6,3.6,18,0.00,,,0.00,VWS V14.01,2013-04-02 09:53:00,
2013-04-02 05:54:00,31.5,-7.2,29.83,West,263,5.4,5.4,18,0.00,,,0.00,VWS V14.01,2013-04-02 09:54:00,
2013-04-02 05:57:00,31.5,-7.2,29.83,WSW,255,2.2,4.0,18,0.00,,,0.00,VWS V14.01,2013-04-02 09:57:00,
2013-04-02 05:59:00,31.5,-7.2,29.83,West,272,2.7,3.6,18,0.00,,,0.00,VWS V14.01,2013-04-02 09:59:00,
2013-04-02 06:00:00,31.5,-7.2,29.83,WSW,257,3.1,3.1,18,0.00,,,0.00,VWS V14.01,2013-04-02 10:00:00,
2013-04-02 06:03:00,31.5,-7.2,29.83,West,278,0.0,0.0,18,0.00,,,0.00,VWS V14.01,2013-04-02 10:03:00,
2013-04-02 06:05:00,31.5,-7.2,29.83,West,278,0.0,0.0,18,0.00,,,0.00,VWS V14.01,2013-04-02 10:05:00,
2013-04-02 06:06:00,31.5,-7.2,29.83,West,274,3.6,3.6,18,0.00,,,0.00,VWS V14.01,2013-04-02 10:06:00,
2013-04-02 06:07:00,31.5,-7.2,29.83,WSW,249,2.2,3.6,18,0.00,,,0.00,VWS V14.01,2013-04-02 10:07:00,
2013-04-02 06:08:00,31.3,-7.3,29.80,West,273,2.2,3.1,18,0.00,,,0.00,VWS V14.01,2013-04-02 10:08:00,
2013-04-02 06:13:00,31.3,-7.3,29.80,West,276,2.7,2.7,18,0.00,,,0.00,VWS V14.01,2013-04-02 10:13:00,
2013-04-02 06:14:00,31.3,-7.3,29.80,West,263,2.2,3.1,18,0.00,,,0.00,VWS V14.01,2013-04-02 10:14:00,
2013-04-02 06:18:00,31.1,-7.4,29.80,West,271,2.7,2.7,18,0.00,,,0.00,VWS V14.01,2013-04-02 10:18:00,
2013-04-02 06:19:00,31.1,-7.4,29.80,West,272,0.0,3.1,18,0.00,,,0.00,VWS V14.01,2013-04-02 10:19:00,
2013-04-02 06:22:00,31.1,-7.4,29.83,West,261,2.7,2.7,18,0.00,,,0.00,VWS V14.01,2013-04-02 10:22:00,
2013-04-02 06:24:00,31.1,-7.4,29.83,West,272,2.7,4.0,18,0.00,,,0.00,VWS V14.01,2013-04-02 10:24:00,
2013-04-02 06:25:00,31.1,-7.4,29.83,West,264,2.7,3.1,18,0.00,,,0.00,VWS V14.01,2013-04-02 10:25:00,
2013-04-02 06:29:00,30.9,-7.6,29.83,West,266,3.1,3.1,18,0.00,,,0.00,VWS V14.01,2013-04-02 10:29:00,
2013-04-02 06:30:00,30.9,-7.6,29.83,West,269,2.7,3.1,18,0.00,,,0.00,VWS V14.01,2013-04-02 10:30:00,
2013-04-02 06:34:00,30.9,-7.6,29.83,West,263,0.0,0.0,18,0.00,,,0.00,VWS V14.01,2013-04-02 10:34:00,
2013-04-02 06:37:00,30.9,-7.6,29.83,WSW,256,3.6,4.0,18,0.00,,,0.00,VWS V14.01,2013-04-02 10:37:00,
2013-04-02 06:39:00,30.9,-7.6,29.83,WNW,296,4.0,4.0,18,0.00,,,0.00,VWS V14.01,2013-04-02 10:39:00,
2013-04-02 06:40:00,31.1,-7.4,29.83,West,276,0.0,2.2,18,0.00,,,0.00,VWS V14.01,2013-04-02 10:40:00,
2013-04-02 06:43:00,31.1,-7.4,29.83,West,265,2.2,3.1,18,0.00,,,0.00,VWS V14.01,2013-04-02 10:43:00,
2013-04-02 06:45:00,31.1,-7.4,29.83,West,280,2.7,3.1,18,0.00,,,0.00,VWS V14.01,2013-04-02 10:45:00,
2013-04-02 06:46:00,30.9,-7.6,29.83,WNW,289,3.1,3.1,18,0.00,,,0.00,VWS V14.01,2013-04-02 10:46:00,
2013-04-02 06:48:00,30.9,-7.6,29.83,WSW,255,2.7,2.7,18,0.00,,,0.00,VWS V14.01,2013-04-02 10:48:00,
2013-04-02 06:50:00,30.9,-7.6,29.83,WSW,254,4.0,4.0,18,0.00,,,0.00,VWS V14.01,2013-04-02 10:50:00,
2013-04-02 06:51:00,30.9,-7.6,29.83,West,262,0.0,2.2,18,0.00,,,0.00,VWS V14.01,2013-04-02 10:51:00,
2013-04-02 06:53:00,30.9,-7.6,29.83,West,263,0.0,0.0,18,0.00,,,0.00,VWS V14.01,2013-04-02 10:53:00,
2013-04-02 06:55:00,30.9,-7.6,29.83,West,260,0.0,0.0,18,0.00,,,0.00,VWS V14.01,2013-04-02 10:55:00,
2013-04-02 06:57:00,30.9,-7.6,29.83,West,261,2.7,3.1,18,0.00,,,0.00,VWS V14.01,2013-04-02 10:57:00,
2013-04-02 06:59:00,30.7,-7.7,29.83,West,262,0.0,0.0,18,0.00,,,0.00,VWS V14.01,2013-04-02 10:59:00,
2013-04-02 07:01:00,30.7,-7.7,29.83,West,272,0.0,0.0,18,0.00,,,0.00,VWS V14.01,2013-04-02 11:01:00,
2013-04-02 07:02:00,30.7,-7.7,29.83,West,277,0.0,0.0,18,0.00,,,0.00,VWS V14.01,2013-04-02 11:02:00,
2013-04-02 07:04:00,30.6,-7.9,29.83,West,259,3.1,3.1,18,0.00,,,0.00,VWS V14.01,2013-04-02 11:04:00,
2013-04-02 07:07:00,30.6,-7.9,29.83,West,277,2.7,3.1,18,0.00,,,0.00,VWS V14.01,2013-04-02 11:07:00,
2013-04-02 07:09:00,30.6,-7.9,29.83,West,259,4.0,4.0,18,0.00,,,0.00,VWS V14.01,2013-04-02 11:09:00,
2013-04-02 07:10:00,30.6,-7.9,29.83,West,273,2.2,4.0,18,0.00,,,0.00,VWS V14.01,2013-04-02 11:10:00,
2013-04-02 07:13:00,30.6,-7.9,29.83,West,262,3.1,3.6,18,0.00,,,0.00,VWS V14.01,2013-04-02 11:13:00,
2013-04-02 07:14:00,30.6,-7.9,29.83,West,275,0.0,2.7,18,0.00,,,0.00,VWS V14.01,2013-04-02 11:14:00,
2013-04-02 07:15:00,30.6,-7.9,29.83,West,275,0.0,2.7,18,0.00,,,0.00,VWS V14.01,2013-04-02 11:15:00,
2013-04-02 07:17:00,30.6,-7.9,29.83,West,280,0.0,2.7,18,0.00,,,0.00,VWS V14.01,2013-04-02 11:17:00,
2013-04-02 07:18:00,30.7,-7.7,29.83,West,280,0.0,2.7,18,0.00,,,0.00,VWS V14.01,2013-04-02 11:18:00,
2013-04-02 07:19:00,30.7,-7.7,29.83,WSW,252,2.7,4.0,18,0.00,,,0.00,VWS V14.01,2013-04-02 11:19:00,
2013-04-02 07:20:00,30.7,-7.7,29.83,West,259,2.7,2.7,18,0.00,,,0.00,VWS V14.01,2013-04-02 11:20:00,
2013-04-02 07:23:00,30.9,-7.6,29.85,West,270,3.1,3.1,18,0.00,,,0.00,VWS V14.01,2013-04-02 11:23:00,
2013-04-02 07:24:00,30.9,-7.6,29.85,WSW,256,2.2,3.1,18,0.00,,,0.00,VWS V14.01,2013-04-02 11:24:00,
2013-04-02 07:25:00,31.1,-7.4,29.85,WSW,256,0.0,3.1,18,0.00,,,0.00,VWS V14.01,2013-04-02 11:25:00,
2013-04-02 07:26:00,31.1,-7.4,29.85,WSW,254,0.0,0.0,18,0.00,,,0.00,VWS V14.01,2013-04-02 11:26:00,
2013-04-02 07:30:00,31.3,-7.3,29.85,West,264,2.7,3.1,18,0.00,,,0.00,VWS V14.01,2013-04-02 11:30:00,
2013-04-02 07:31:00,31.5,-7.2,29.85,West,270,4.0,4.0,18,0.00,,,0.00,VWS V14.01,2013-04-02 11:31:00,
2013-04-02 07:32:00,31.5,-7.2,29.85,West,262,3.6,4.0,18,0.00,,,0.00,VWS V14.01,2013-04-02 11:32:00,
2013-04-02 07:36:00,31.8,-6.8,29.85,West,273,4.0,4.0,18,0.00,,,0.00,VWS V14.01,2013-04-02 11:36:00,
2013-04-02 07:37:00,32.0,-6.7,29.85,West,274,2.2,4.0,18,0.00,,,0.00,VWS V14.01,2013-04-02 11:37:00,
2013-04-02 07:38:00,32.0,-6.7,29.85,West,265,2.7,4.0,18,0.00,,,0.00,VWS V14.01,2013-04-02 11:38:00,
2013-04-02 07:40:00,32.2,-6.6,29.85,WSW,252,3.1,5.8,18,0.00,,,0.00,VWS V14.01,2013-04-02 11:40:00,
2013-04-02 07:42:00,32.4,-6.4,29.85,WSW,252,2.7,4.0,18,0.00,,,0.00,VWS V14.01,2013-04-02 11:42:00,
2013-04-02 07:43:00,32.5,-6.2,29.85,West,272,2.7,4.0,18,0.00,,,0.00,VWS V14.01,2013-04-02 11:43:00,
2013-04-02 07:44:00,32.5,-6.2,29.85,West,265,2.7,3.1,18,0.00,,,0.00,VWS V14.01,2013-04-02 11:44:00,
2013-04-02 07:48:00,32.7,-6.1,29.85,SW,236,2.7,2.7,18,0.00,,,0.00,VWS V14.01,2013-04-02 11:48:00,
2013-04-02 07:49:00,32.9,-5.9,29.85,West,266,2.7,4.0,18,0.00,,,0.00,VWS V14.01,2013-04-02 11:49:00,
2013-04-02 07:50:00,32.9,-5.9,29.85,WNW,299,2.7,2.7,18,0.00,,,0.00,VWS V14.01,2013-04-02 11:50:00,
2013-04-02 07:54:00,33.1,-5.8,29.85,WSW,251,2.7,3.6,18,0.00,,,0.00,VWS V14.01,2013-04-02 11:54:00,
2013-04-02 07:55:00,33.3,-5.7,29.85,West,265,2.7,4.0,18,0.00,,,0.00,VWS V14.01,2013-04-02 11:55:00,
2013-04-02 07:56:00,33.3,-5.7,29.85,WSW,249,4.0,4.0,18,0.00,,,0.00,VWS V14.01,2013-04-02 11:56:00,
2013-04-02 07:57:00,33.3,-5.7,29.85,SW,233,5.8,5.8,18,0.00,,,0.00,VWS V14.01,2013-04-02 11:57:00,
2013-04-02 08:00:00,33.4,-5.5,29.85,WSW,252,4.0,6.3,18,0.00,,,0.00,VWS V14.01,2013-04-02 12:00:00,
2013-04-02 08:01:00,33.6,-5.3,29.85,SW,236,3.1,3.6,18,0.00,,,0.00,VWS V14.01,2013-04-02 12:01:00,
2013-04-02 08:02:00,33.6,-5.3,29.85,SW,225,3.1,3.1,18,0.00,,,0.00,VWS V14.01,2013-04-02 12:02:00,
2013-04-02 08:05:00,33.8,-6.4,29.85,WNW,297,3.6,6.3,17,0.00,,,0.00,VWS V14.01,2013-04-02 12:05:00,
2013-04-02 08:06:00,33.8,-6.4,29.85,WSW,258,2.7,3.6,17,0.00,,,0.00,VWS V14.01,2013-04-02 12:06:00,
2013-04-02 08:07:00,34.0,-6.2,29.88,West,263,4.0,4.0,17,0.00,,,0.00,VWS V14.01,2013-04-02 12:07:00,
2013-04-02 08:08:00,34.0,-6.2,29.88,West,280,5.4,5.4,17,0.00,,,0.00,VWS V14.01,2013-04-02 12:08:00,
2013-04-02 08:11:00,34.2,-6.1,29.88,SW,216,4.0,4.0,17,0.00,,,0.00,VWS V14.01,2013-04-02 12:11:00,
2013-04-02 08:12:00,34.2,-6.1,29.88,West,273,5.4,5.4,17,0.00,,,0.00,VWS V14.01,2013-04-02 12:12:00,
2013-04-02 08:13:00,34.2,-6.1,29.88,West,260,6.3,6.3,17,0.00,,,0.00,VWS V14.01,2013-04-02 12:13:00,
2013-04-02 08:14:00,34.3,-5.9,29.88,NNW,329,2.2,6.3,17,0.00,,,0.00,VWS V14.01,2013-04-02 12:14:00,
2013-04-02 08:16:00,34.3,-5.9,29.88,WNW,302,2.7,4.0,17,0.00,,,0.00,VWS V14.01,2013-04-02 12:16:00,
2013-04-02 08:17:00,34.3,-5.9,29.88,WNW,292,2.7,2.7,17,0.00,,,0.00,VWS V14.01,2013-04-02 12:17:00,
2013-04-02 08:18:00,34.5,-5.8,29.88,WSW,252,3.6,3.6,17,0.00,,,0.00,VWS V14.01,2013-04-02 12:18:00,
2013-04-02 08:19:00,34.5,-5.8,29.88,West,266,3.1,5.4,17,0.00,,,0.00,VWS V14.01,2013-04-02 12:19:00,
2013-04-02 08:23:00,34.7,-5.6,29.88,SW,235,10.1,10.1,17,0.00,,,0.00,VWS V14.01,2013-04-02 12:23:00,
2013-04-02 08:24:00,34.7,-5.6,29.88,WSW,255,3.6,3.6,17,0.00,,,0.00,VWS V14.01,2013-04-02 12:24:00,
2013-04-02 08:27:00,34.7,-5.6,29.88,West,261,3.1,3.1,17,0.00,,,0.00,VWS V14.01,2013-04-02 12:27:00,
2013-04-02 08:28:00,34.7,-5.6,29.88,SSW,213,3.1,4.9,17,0.00,,,0.00,VWS V14.01,2013-04-02 12:28:00,
2013-04-02 08:29:00,34.7,-5.6,29.88,WSW,253,4.0,8.1,17,0.00,,,0.00,VWS V14.01,2013-04-02 12:29:00,
2013-04-02 08:31:00,34.5,-5.8,29.88,WSW,255,8.1,10.1,17,0.00,,,0.00,VWS V14.01,2013-04-02 12:31:00,
2013-04-02 08:33:00,34.5,-5.8,29.88,SSW,201,0.0,6.3,17,0.00,,,0.00,VWS V14.01,2013-04-02 12:33:00,
2013-04-02 08:34:00,34.5,-5.8,29.88,WNW,300,3.6,6.3,17,0.00,,,0.00,VWS V14.01,2013-04-02 12:34:00,
2013-04-02 08:36:00,34.5,-5.8,29.88,SW,220,5.4,5.4,17,0.00,,,0.00,VWS V14.01,2013-04-02 12:36:00,
2013-04-02 08:38:00,34.5,-5.8,29.88,WNW,290,2.2,3.1,17,0.00,,,0.00,VWS V14.01,2013-04-02 12:38:00,
2013-04-02 08:39:00,34.5,-5.8,29.88,West,278,2.7,3.6,17,0.00,,,0.00,VWS V14.01,2013-04-02 12:39:00,
2013-04-02 08:41:00,34.7,-5.6,29.88,West,274,0.0,0.0,17,0.00,,,0.00,VWS V14.01,2013-04-02 12:41:00,
2013-04-02 08:44:00,34.7,-5.6,29.88,West,260,7.6,7.6,17,0.00,,,0.00,VWS V14.01,2013-04-02 12:44:00,
2013-04-02 08:46:00,34.5,-5.8,29.88,NW,319,4.0,4.0,17,0.00,,,0.00,VWS V14.01,2013-04-02 12:46:00,
2013-04-02 08:47:00,34.5,-5.8,29.88,WNW,291,5.8,5.8,17,0.00,,,0.00,VWS V14.01,2013-04-02 12:47:00,
2013-04-02 08:48:00,34.5,-5.8,29.88,West,268,3.1,5.8,17,0.00,,,0.00,VWS V14.01,2013-04-02 12:48:00,
2013-04-02 08:49:00,34.5,-5.8,29.88,West,265,5.8,5.8,17,0.00,,,0.00,VWS V14.01,2013-04-02 12:49:00,
2013-04-02 08:51:00,34.5,-5.8,29.88,West,280,3.1,3.6,17,0.00,,,0.00,VWS V14.01,2013-04-02 12:51:00,
2013-04-02 08:52:00,34.5,-5.8,29.88,West,275,4.0,6.3,17,0.00,,,0.00,VWS V14.01,2013-04-02 12:52:00,
2013-04-02 08:55:00,34.7,-5.6,29.88,NNW,337,4.9,4.9,17,0.00,,,0.00,VWS V14.01,2013-04-02 12:55:00,
2013-04-02 08:56:00,34.7,-5.6,29.88,WSW,248,5.4,5.4,17,0.00,,,0.00,VWS V14.01,2013-04-02 12:56:00,
2013-04-02 08:57:00,34.9,-5.5,29.88,West,277,5.8,7.2,17,0.00,,,0.00,VWS V14.01,2013-04-02 12:57:00,
2013-04-02 09:00:00,35.1,-5.3,29.88,NW,312,2.7,5.4,17,0.00,,,0.00,VWS V14.01,2013-04-02 13:00:00,
2013-04-02 09:02:00,35.2,-5.2,29.88,West,264,7.6,8.1,17,0.00,,,0.00,VWS V14.01,2013-04-02 13:02:00,
2013-04-02 09:05:00,35.6,-4.9,29.88,West,276,4.0,8.3,17,0.00,,,0.00,VWS V14.01,2013-04-02 13:05:00,
2013-04-02 09:07:00,35.6,-4.9,29.88,WSW,246,8.3,8.3,17,0.00,,,0.00,VWS V14.01,2013-04-02 13:07:00,
2013-04-02 09:08:00,35.6,-4.9,29.88,WNW,294,6.3,8.3,17,0.00,,,0.00,VWS V14.01,2013-04-02 13:08:00,
2013-04-02 09:10:00,35.8,-4.8,29.88,West,280,3.6,6.3,17,0.00,,,0.00,VWS V14.01,2013-04-02 13:10:00,
2013-04-02 09:13:00,36.0,-4.6,29.88,SSW,205,3.1,5.4,17,0.00,,,0.00,VWS V14.01,2013-04-02 13:13:00,
2013-04-02 09:15:00,36.1,-4.5,29.88,NW,310,6.3,6.3,17,0.00,,,0.00,VWS V14.01,2013-04-02 13:15:00,
2013-04-02 09:18:00,36.3,-4.3,29.88,NW,318,6.3,6.3,17,0.00,,,0.00,VWS V14.01,2013-04-02 13:18:00,
2013-04-02 09:19:00,36.3,-4.3,29.88,West,275,4.0,6.3,17,0.00,,,0.00,VWS V14.01,2013-04-02 13:19:00,
2013-04-02 09:21:00,36.5,-4.2,29.88,WNW,295,4.0,5.8,17,0.00,,,0.00,VWS V14.01,2013-04-02 13:21:00,
2013-04-02 09:24:00,36.5,-4.2,29.88,SE,146,3.1,5.4,17,0.00,,,0.00,VWS V14.01,2013-04-02 13:24:00,
2013-04-02 09:25:00,36.5,-4.2,29.88,West,265,2.7,4.0,17,0.00,,,0.00,VWS V14.01,2013-04-02 13:25:00,
2013-04-02 09:27:00,36.3,-4.3,29.88,West,276,5.4,10.1,17,0.00,,,0.00,VWS V14.01,2013-04-02 13:27:00,
2013-04-02 09:30:00,35.8,-4.8,29.88,NW,320,5.8,8.3,17,0.00,,,0.00,VWS V14.01,2013-04-02 13:30:00,
2013-04-02 09:31:00,35.8,-4.8,29.88,West,279,5.4,8.3,17,0.00,,,0.00,VWS V14.01,2013-04-02 13:31:00,
2013-04-02 09:33:00,35.8,-4.8,29.88,West,264,5.4,5.4,17,0.00,,,0.00,VWS V14.01,2013-04-02 13:33:00,
2013-04-02 09:36:00,35.8,-4.8,29.88,WNW,301,3.6,4.0,17,0.00,,,0.00,VWS V14.01,2013-04-02 13:36:00,
2013-04-02 09:37:00,35.8,-4.8,29.88,SW,228,4.0,4.0,17,0.00,,,0.00,VWS V14.01,2013-04-02 13:37:00,
2013-04-02 09:38:00,36.0,-4.6,29.88,WNW,300,3.6,4.9,17,0.00,,,0.00,VWS V14.01,2013-04-02 13:38:00,
2013-04-02 09:41:00,36.1,-4.5,29.88,West,278,8.1,8.3,17,0.00,,,0.00,VWS V14.01,2013-04-02 13:41:00,
2013-04-02 09:42:00,36.1,-4.5,29.88,West,281,7.6,8.1,17,0.00,,,0.00,VWS V14.01,2013-04-02 13:42:00,
2013-04-02 09:43:00,36.1,-4.5,29.88,West,277,2.2,2.2,17,0.00,,,0.00,VWS V14.01,2013-04-02 13:43:00,
2013-04-02 09:46:00,36.1,-4.5,29.88,ENE,65,5.8,5.8,17,0.00,,,0.00,VWS V14.01,2013-04-02 13:46:00,
2013-04-02 09:47:00,36.1,-4.5,29.88,NW,304,3.1,5.8,17,0.00,,,0.00,VWS V14.01,2013-04-02 13:47:00,
2013-04-02 09:49:00,36.1,-4.5,29.88,West,281,4.0,7.2,17,0.00,,,0.00,VWS V14.01,2013-04-02 13:49:00,
2013-04-02 09:52:00,36.3,-4.3,29.88,West,264,7.6,7.6,17,0.00,,,0.00,VWS V14.01,2013-04-02 13:52:00,
2013-04-02 09:53:00,36.3,-4.3,29.88,WNW,284,3.6,7.6,17,0.00,,,0.00,VWS V14.01,2013-04-02 13:53:00,
2013-04-02 09:54:00,36.3,-4.3,29.88,NW,305,4.0,4.0,17,0.00,,,0.00,VWS V14.01,2013-04-02 13:54:00,
2013-04-02 09:58:00,36.9,-3.9,29.88,North,1,6.3,8.3,17,0.00,,,0.00,VWS V14.01,2013-04-02 13:58:00,
2013-04-02 09:59:00,36.9,-3.9,29.88,NW,314,4.0,8.3,17,0.00,,,0.00,VWS V14.01,2013-04-02 13:59:00,
2013-04-02 10:00:00,36.9,-3.9,29.88,NW,315,2.7,4.0,17,0.00,,,0.00,VWS V14.01,2013-04-02 14:00:00,
2013-04-02 10:04:00,37.4,-4.7,29.88,WNW,284,3.6,5.4,16,0.00,,,0.00,VWS V14.01,2013-04-02 14:04:00,
2013-04-02 10:05:00,37.6,-4.5,29.88,WNW,283,6.3,6.3,16,0.00,,,0.00,VWS V14.01,2013-04-02 14:05:00,
2013-04-02 10:09:00,37.6,-4.5,29.88,North,357,6.3,6.3,16,0.00,,,0.00,VWS V14.01,2013-04-02 14:09:00,
2013-04-02 10:10:00,37.4,-4.7,29.88,South,182,3.1,6.3,16,0.00,,,0.00,VWS V14.01,2013-04-02 14:10:00,
2013-04-02 10:13:00,37.8,-4.4,29.88,SW,230,2.7,5.8,16,0.00,,,0.00,VWS V14.01,2013-04-02 14:13:00,
2013-04-02 10:15:00,37.9,-4.2,29.88,West,280,5.4,5.8,16,0.00,,,0.00,VWS V14.01,2013-04-02 14:15:00,
2013-04-02 10:16:00,37.9,-4.2,29.88,West,280,7.6,7.6,16,0.00,,,0.00,VWS V14.01,2013-04-02 14:16:00,
2013-04-02 10:18:00,37.9,-4.2,29.88,West,273,3.6,5.4,16,0.00,,,0.00,VWS V14.01,2013-04-02 14:18:00,
2013-04-02 10:20:00,38.1,-4.1,29.88,WSW,251,3.6,4.9,16,0.00,,,0.00,VWS V14.01,2013-04-02 14:20:00,
2013-04-02 10:21:00,38.1,-4.1,29.88,WNW,301,7.6,7.6,16,0.00,,,0.00,VWS V14.01,2013-04-02 14:21:00,
2013-04-02 10:22:00,38.1,-4.1,29.91,WNW,292,8.1,8.1,16,0.00,,,0.00,VWS V14.01,2013-04-02 14:22:00,
2013-04-02 10:23:00,37.9,-4.2,29.91,WNW,291,5.8,5.8,16,0.00,,,0.00,VWS V14.01,2013-04-02 14:23:00,
2013-04-02 10:27:00,38.1,-4.1,29.91,NW,308,5.4,5.8,16,0.00,,,0.00,VWS V14.01,2013-04-02 14:27:00,
2013-04-02 10:28:00,38.1,-4.1,29.91,SSW,208,8.1,11.0,16,0.00,,,0.00,VWS V14.01,2013-04-02 14:28:00,
2013-04-02 10:29:00,38.1,-4.1,29.91,WSW,247,5.4,9.2,16,0.00,,,0.00,VWS V14.01,2013-04-02 14:29:00,
2013-04-02 10:30:00,38.3,-4.0,29.91,West,278,5.8,6.7,16,0.00,,,0.00,VWS V14.01,2013-04-02 14:30:00,
2013-04-02 10:32:00,38.7,-3.7,29.91,SW,234,6.3,9.6,16,0.00,,,0.00,VWS V14.01,2013-04-02 14:32:00,
2013-04-02 10:34:00,38.8,-3.5,29.91,WNW,291,7.2,7.2,16,0.00,,,0.00,VWS V14.01,2013-04-02 14:34:00,
2013-04-02 10:35:00,38.8,-3.5,29.91,West,273,7.2,7.2,16,0.00,,,0.00,VWS V14.01,2013-04-02 14:35:00,
2013-04-02 10:39:00,39.0,-3.4,29.88,West,276,7.6,9.6,16,0.00,,,0.00,VWS V14.01,2013-04-02 14:39:00,
2013-04-02 10:40:00,38.8,-3.5,29.88,WSW,256,5.8,7.6,16,0.00,,,0.00,VWS V14.01,2013-04-02 14:40:00,
2013-04-02 10:41:00,38.7,-3.7,29.88,NNW,329,5.8,8.1,16,0.00,,,0.00,VWS V14.01,2013-04-02 14:41:00,
2013-04-02 10:44:00,38.5,-3.8,29.88,West,260,8.7,8.7,16,0.00,,,0.00,VWS V14.01,2013-04-02 14:44:00,
2013-04-02 10:45:00,38.1,-4.1,29.88,WSW,250,3.6,8.7,16,0.00,,,0.00,VWS V14.01,2013-04-02 14:45:00,
2013-04-02 10:46:00,37.9,-4.2,29.88,West,265,5.4,6.3,16,0.00,,,0.00,VWS V14.01,2013-04-02 14:46:00,
2013-04-02 10:47:00,37.9,-4.2,29.88,West,264,5.8,8.1,16,0.00,,,0.00,VWS V14.01,2013-04-02 14:47:00,
2013-04-02 10:50:00,37.6,-4.5,29.88,WNW,283,10.5,11.0,16,0.00,,,0.00,VWS V14.01,2013-04-02 14:50:00,
2013-04-02 10:52:00,37.8,-4.4,29.88,NW,307,5.4,5.8,16,0.00,,,0.00,VWS V14.01,2013-04-02 14:52:00,
2013-04-02 10:57:00,38.1,-4.1,29.88,WNW,286,5.4,7.6,16,0.00,,,0.00,VWS V14.01,2013-04-02 14:57:00,
2013-04-02 10:58:00,38.5,-3.8,29.88,WSW,246,6.3,6.3,16,0.00,,,0.00,VWS V14.01,2013-04-02 14:58:00,
2013-04-02 11:02:00,38.5,-3.8,29.88,West,263,8.3,8.3,16,0.00,,,0.00,VWS V14.01,2013-04-02 15:02:00,
2013-04-02 11:03:00,38.5,-3.8,29.88,South,182,3.6,5.4,16,0.00,,,0.00,VWS V14.01,2013-04-02 15:03:00,
2013-04-02 11:04:00,38.5,-3.8,29.88,NW,308,6.3,6.3,16,0.00,,,0.00,VWS V14.01,2013-04-02 15:04:00,
2013-04-02 11:07:00,38.5,-3.8,29.88,West,270,8.1,8.1,16,0.00,,,0.00,VWS V14.01,2013-04-02 15:07:00,
2013-04-02 11:09:00,38.1,-4.1,29.88,West,261,2.7,5.8,16,0.00,,,0.00,VWS V14.01,2013-04-02 15:09:00,
2013-04-02 11:10:00,38.1,-4.1,29.88,WSW,250,3.6,3.6,16,0.00,,,0.00,VWS V14.01,2013-04-02 15:10:00,
2013-04-02 11:11:00,37.9,-4.2,29.88,NW,310,4.9,11.0,16,0.00,,,0.00,VWS V14.01,2013-04-02 15:11:00,
2013-04-02 11:12:00,37.9,-4.2,29.88,SSW,205,4.9,8.3,16,0.00,,,0.00,VWS V14.01,2013-04-02 15:12:00,
2013-04-02 11:15:00,38.1,-4.1,29.88,West,279,5.4,5.4,16,0.00,,,0.00,VWS V14.01,2013-04-02 15:15:00,
2013-04-02 11:16:00,38.1,-4.1,29.88,SSW,207,5.4,5.4,16,0.00,,,0.00,VWS V14.01,2013-04-02 15:16:00,
2013-04-02 11:17:00,38.5,-3.8,29.88,WSW,252,10.5,10.5,16,0.00,,,0.00,VWS V14.01,2013-04-02 15:17:00,
2013-04-02 11:18:00,38.5,-3.8,29.88,South,172,4.9,10.5,16,0.00,,,0.00,VWS V14.01,2013-04-02 15:18:00,
2013-04-02 11:21:00,38.7,-3.7,29.88,NNW,342,3.1,6.3,16,0.00,,,0.00,VWS V14.01,2013-04-02 15:21:00,
2013-04-02 11:22:00,38.7,-3.7,29.88,NNW,339,2.7,6.3,16,0.00,,,0.00,VWS V14.01,2013-04-02 15:22:00,
2013-04-02 11:23:00,38.7,-3.7,29.88,NW,305,2.7,3.1,16,0.00,,,0.00,VWS V14.01,2013-04-02 15:23:00,
2013-04-02 11:24:00,38.7,-3.7,29.88,SW,236,3.1,4.0,16,0.00,,,0.00,VWS V14.01,2013-04-02 15:24:00,
2013-04-02 11:27:00,39.2,-3.2,29.88,West,263,3.6,5.4,16,0.00,,,0.00,VWS V14.01,2013-04-02 15:27:00,
2013-04-02 11:28:00,39.2,-3.2,29.88,West,272,2.7,5.4,16,0.00,,,0.00,VWS V14.01,2013-04-02 15:28:00,
2013-04-02 11:29:00,39.2,-3.2,29.88,West,273,8.1,12.8,16,0.00,,,0.00,VWS V14.01,2013-04-02 15:29:00,
2013-04-02 11:30:00,39.2,-3.2,29.88,NE,55,3.6,3.6,16,0.00,,,0.00,VWS V14.01,2013-04-02 15:30:00,
2013-04-02 11:33:00,38.8,-3.5,29.88,West,264,4.0,5.8,16,0.00,,,0.00,VWS V14.01,2013-04-02 15:33:00,
2013-04-02 11:34:00,38.7,-3.7,29.88,WNW,288,5.4,6.3,16,0.00,,,0.00,VWS V14.01,2013-04-02 15:34:00,
2013-04-02 11:35:00,38.7,-3.7,29.88,West,267,4.0,5.4,16,0.00,,,0.00,VWS V14.01,2013-04-02 15:35:00,
2013-04-02 11:39:00,38.1,-4.1,29.88,WNW,290,8.3,8.3,16,0.00,,,0.00,VWS V14.01,2013-04-02 15:39:00,
2013-04-02 11:40:00,38.3,-4.0,29.88,WSW,242,7.6,7.6,16,0.00,,,0.00,VWS V14.01,2013-04-02 15:40:00,
2013-04-02 11:41:00,38.3,-4.0,29.88,West,260,10.5,10.5,16,0.00,,,0.00,VWS V14.01,2013-04-02 15:41:00,
2013-04-02 11:44:00,38.7,-3.7,29.88,West,265,8.1,8.1,16,0.00,,,0.00,VWS V14.01,2013-04-02 15:44:00,
2013-04-02 11:47:00,38.8,-3.5,29.88,WNW,298,4.0,4.0,16,0.00,,,0.00,VWS V14.01,2013-04-02 15:47:00,
2013-04-02 11:50:00,39.0,-3.4,29.88,South,183,5.4,5.8,16,0.00,,,0.00,VWS V14.01,2013-04-02 15:50:00,
2013-04-02 11:53:00,39.2,-3.2,29.88,West,266,4.0,8.3,16,0.00,,,0.00,VWS V14.01,2013-04-02 15:53:00,
2013-04-02 11:55:00,39.4,-3.1,29.88,SW,226,4.9,5.4,16,0.00,,,0.00,VWS V14.01,2013-04-02 15:55:00,
2013-04-02 11:58:00,39.9,-2.6,29.88,WSW,237,5.4,5.4,16,0.00,,,0.00,VWS V14.01,2013-04-02 15:58:00,
2013-04-02 11:59:00,39.9,-2.6,29.88,SSE,150,2.7,5.4,16,0.00,,,0.00,VWS V14.01,2013-04-02 15:59:00,
2013-04-02 12:02:00,40.3,-2.3,29.88,SSW,203,2.7,8.7,16,0.00,,,0.00,VWS V14.01,2013-04-02 16:02:00,
2013-04-02 12:04:00,40.3,-2.3,29.88,WNW,301,5.8,6.3,16,0.00,,,0.00,VWS V14.01,2013-04-02 16:04:00,
2013-04-02 12:07:00,39.9,-2.6,29.88,West,261,4.0,4.0,16,0.00,,,0.00,VWS V14.01,2013-04-02 16:07:00,
2013-04-02 12:09:00,39.7,-2.8,29.88,WSW,238,0.0,3.6,16,0.00,,,0.00,VWS V14.01,2013-04-02 16:09:00,
2013-04-02 12:10:00,39.6,-2.9,29.88,West,275,4.0,4.0,16,0.00,,,0.00,VWS V14.01,2013-04-02 16:10:00,
2013-04-02 12:13:00,39.4,-3.1,29.88,WNW,282,5.4,7.6,16,0.00,,,0.00,VWS V14.01,2013-04-02 16:13:00,
2013-04-02 12:15:00,39.2,-3.2,29.88,WSW,241,3.6,7.2,16,0.00,,,0.00,VWS V14.01,2013-04-02 16:15:00,
2013-04-02 12:17:00,39.0,-3.4,29.88,SSW,213,5.8,8.1,16,0.00,,,0.00,VWS V14.01,2013-04-02 16:17:00,
2013-04-02 12:20:00,39.2,-3.2,29.88,North,353,4.0,4.0,16,0.00,,,0.00,VWS V14.01,2013-04-02 16:20:00,
2013-04-02 12:24:00,39.7,-2.8,29.88,WSW,250,2.7,9.6,16,0.00,,,0.00,VWS V14.01,2013-04-02 16:24:00,
2013-04-02 12:25:00,39.9,-2.6,29.88,West,267,6.7,8.1,16,0.00,,,0.00,VWS V14.01,2013-04-02 16:25:00,
2013-04-02 12:27:00,39.9,-2.6,29.88,WNW,289,4.0,11.0,16,0.00,,,0.00,VWS V14.01,2013-04-02 16:27:00,
2013-04-02 12:30:00,39.7,-2.8,29.88,SSW,209,4.0,6.3,16,0.00,,,0.00,VWS V14.01,2013-04-02 16:30:00,
2013-04-02 12:31:00,39.6,-2.9,29.88,WNW,289,7.6,10.1,16,0.00,,,0.00,VWS V14.01,2013-04-02 16:31:00,
2013-04-02 12:33:00,39.4,-3.1,29.88,WNW,298,5.4,10.1,16,0.00,,,0.00,VWS V14.01,2013-04-02 16:33:00,
2013-04-02 12:36:00,39.4,-3.1,29.88,NNW,330,3.6,3.6,16,0.00,,,0.00,VWS V14.01,2013-04-02 16:36:00,
2013-04-02 12:38:00,39.6,-2.9,29.88,WNW,293,5.8,10.5,16,0.00,,,0.00,VWS V14.01,2013-04-02 16:38:00,
2013-04-02 12:39:00,39.6,-2.9,29.88,WSW,248,5.8,5.8,16,0.00,,,0.00,VWS V14.01,2013-04-02 16:39:00,
2013-04-02 12:42:00,39.9,-2.6,29.88,SSE,161,4.0,6.3,16,0.00,,,0.00,VWS V14.01,2013-04-02 16:42:00,
2013-04-02 12:43:00,40.1,-2.5,29.88,SW,236,6.3,8.3,16,0.00,,,0.00,VWS V14.01,2013-04-02 16:43:00,
2013-04-02 12:45:00,40.5,-2.2,29.88,West,271,5.4,5.4,16,0.00,,,0.00,VWS V14.01,2013-04-02 16:45:00,
2013-04-02 12:47:00,41.0,-1.7,29.88,WSW,237,0.0,6.3,16,0.00,,,0.00,VWS V14.01,2013-04-02 16:47:00,
2013-04-02 12:50:00,41.9,-1.0,29.88,West,272,3.6,8.3,16,0.00,,,0.00,VWS V14.01,2013-04-02 16:50:00,
2013-04-02 12:53:00,41.9,-1.0,29.88,SW,226,5.4,8.7,16,0.00,,,0.00,VWS V14.01,2013-04-02 16:53:00,
2013-04-02 12:55:00,41.5,-1.3,29.88,West,267,8.7,8.7,16,0.00,,,0.00,VWS V14.01,2013-04-02 16:55:00,
2013-04-02 12:56:00,41.5,-1.3,29.88,NW,319,6.3,8.7,16,0.00,,,0.00,VWS V14.01,2013-04-02 16:56:00,
2013-04-02 12:58:00,41.2,-1.6,29.88,WNW,286,3.1,3.1,16,0.00,,,0.00,VWS V14.01,2013-04-02 16:58:00,
2013-04-02 13:00:00,41.2,-1.6,29.88,West,272,10.5,10.5,16,0.00,,,0.00,VWS V14.01,2013-04-02 17:00:00,
2013-04-02 13:02:00,41.4,-1.5,29.88,WNW,287,4.9,5.4,16,0.00,,,0.00,VWS V14.01,2013-04-02 17:02:00,
2013-04-02 13:03:00,41.4,-1.5,29.88,WNW,290,3.6,5.4,16,0.00,,,0.00,VWS V14.01,2013-04-02 17:03:00,
2013-04-02 13:05:00,41.4,-1.5,29.88,West,260,8.7,11.4,16,0.00,,,0.00,VWS V14.01,2013-04-02 17:05:00,
2013-04-02 13:07:00,41.4,-1.5,29.88,NW,321,3.6,5.4,16,0.00,,,0.00,VWS V14.01,2013-04-02 17:07:00,
2013-04-02 13:08:00,41.4,-1.5,29.88,NW,309,8.1,8.7,16,0.00,,,0.00,VWS V14.01,2013-04-02 17:08:00,
2013-04-02 13:10:00,41.7,-1.2,29.88,WSW,238,5.4,8.3,16,0.00,,,0.00,VWS V14.01,2013-04-02 17:10:00,
2013-04-02 13:13:00,41.7,-1.2,29.88,West,278,9.2,10.1,16,0.00,,,0.00,VWS V14.01,2013-04-02 17:13:00,
2013-04-02 13:15:00,41.2,-1.6,29.88,WNW,288,3.6,8.1,16,0.00,,,0.00,VWS V14.01,2013-04-02 17:15:00,
2013-04-02 13:16:00,41.2,-1.6,29.88,WSW,252,6.3,6.3,16,0.00,,,0.00,VWS V14.01,2013-04-02 17:16:00,
2013-04-02 13:18:00,41.2,-1.6,29.88,NW,308,8.1,9.6,16,0.00,,,0.00,VWS V14.01,2013-04-02 17:18:00,
2013-04-02 13:21:00,41.5,-1.3,29.88,South,189,5.4,7.6,16,0.00,,,0.00,VWS V14.01,2013-04-02 17:21:00,
2013-04-02 13:23:00,41.9,-1.0,29.85,WNW,284,8.7,9.6,16,0.00,,,0.00,VWS V14.01,2013-04-02 17:23:00,
2013-04-02 13:26:00,42.3,-0.7,29.85,West,270,3.6,8.1,16,0.00,,,0.00,VWS V14.01,2013-04-02 17:26:00,
2013-04-02 13:28:00,42.6,-0.4,29.85,West,261,7.6,10.5,16,0.00,,,0.00,VWS V14.01,2013-04-02 17:28:00,
2013-04-02 13:30:00,42.4,-0.6,29.85,West,271,5.4,6.3,16,0.00,,,0.00,VWS V14.01,2013-04-02 17:30:00,
2013-04-02 13:31:00,42.4,-0.6,29.85,NW,314,7.2,7.6,16,0.00,,,0.00,VWS V14.01,2013-04-02 17:31:00,
2013-04-02 13:34:00,42.4,-0.6,29.85,WNW,303,4.9,8.1,16,0.00,,,0.00,VWS V14.01,2013-04-02 17:34:00,
2013-04-02 13:35:00,42.8,-1.6,29.85,SW,215,5.4,5.8,15,0.00,,,0.00,VWS V14.01,2013-04-02 17:35:00,
2013-04-02 13:37:00,42.8,-1.6,29.85,WNW,286,7.6,8.1,15,0.00,,,0.00,VWS V14.01,2013-04-02 17:37:00,
2013-04-02 13:39:00,43.2,-1.4,29.85,NNW,343,3.6,3.6,15,0.00,,,0.00,VWS V14.01,2013-04-02 17:39:00,
2013-04-02 13:40:00,43.5,-1.1,29.85,West,265,7.6,7.6,15,0.00,,,0.00,VWS V14.01,2013-04-02 17:40:00,
2013-04-02 13:42:00,43.7,-0.9,29.85,WSW,253,4.0,7.2,15,0.00,,,0.00,VWS V14.01,2013-04-02 17:42:00,
2013-04-02 13:45:00,43.7,-0.9,29.85,WSW,247,7.6,10.5,15,0.00,,,0.00,VWS V14.01,2013-04-02 17:45:00,
2013-04-02 13:46:00,43.7,-0.9,29.85,WSW,256,12.8,12.8,15,0.00,,,0.00,VWS V14.01,2013-04-02 17:46:00,
2013-04-02 13:48:00,43.5,-1.1,29.85,NNW,348,6.3,8.3,15,0.00,,,0.00,VWS V14.01,2013-04-02 17:48:00,
2013-04-02 13:50:00,43.5,-1.1,29.85,NW,306,6.3,10.1,15,0.00,,,0.00,VWS V14.01,2013-04-02 17:50:00,
2013-04-02 13:52:00,43.5,-1.1,29.85,SW,224,6.3,7.6,15,0.00,,,0.00,VWS V14.01,2013-04-02 17:52:00,
2013-04-02 13:53:00,43.7,-0.9,29.85,WNW,284,10.1,10.1,15,0.00,,,0.00,VWS V14.01,2013-04-02 17:53:00,
2013-04-02 13:57:00,44.1,-0.6,29.85,WNW,293,6.7,10.5,15,0.00,,,0.00,VWS V14.01,2013-04-02 17:57:00,
2013-04-02 13:58:00,44.1,-0.6,29.85,West,261,7.6,9.2,15,0.00,,,0.00,VWS V14.01,2013-04-02 17:58:00,
2013-04-02 14:01:00,43.5,-1.1,29.85,WNW,289,5.4,6.7,15,0.00,,,0.00,VWS V14.01,2013-04-02 18:01:00,
2013-04-02 14:03:00,43.5,-1.1,29.85,West,275,4.5,8.1,15,0.00,,,0.00,VWS V14.01,2013-04-02 18:03:00,
2013-04-02 14:04:00,43.7,-0.9,29.85,WNW,290,2.7,8.1,15,0.00,,,0.00,VWS V14.01,2013-04-02 18:04:00,
2013-04-02 14:08:00,43.7,-0.9,29.85,North,353,3.6,4.9,15,0.00,,,0.00,VWS V14.01,2013-04-02 18:08:00,
2013-04-02 14:10:00,43.7,-0.9,29.85,West,265,9.2,9.2,15,0.00,,,0.00,VWS V14.01,2013-04-02 18:10:00,
2013-04-02 14:11:00,44.1,-0.6,29.85,SW,233,3.1,4.9,15,0.00,,,0.00,VWS V14.01,2013-04-02 18:11:00,
2013-04-02 14:13:00,44.2,-0.5,29.85,WSW,251,6.3,8.1,15,0.00,,,0.00,VWS V14.01,2013-04-02 18:13:00,
2013-04-02 14:15:00,44.4,-0.3,29.85,South,184,8.1,8.1,15,0.00,,,0.00,VWS V14.01,2013-04-02 18:15:00,
2013-04-02 14:16:00,44.4,-0.3,29.85,West,268,6.7,6.7,15,0.00,,,0.00,VWS V14.01,2013-04-02 18:16:00,
2013-04-02 14:18:00,44.2,-0.5,29.85,WNW,286,3.6,8.3,15,0.00,,,0.00,VWS V14.01,2013-04-02 18:18:00,
2013-04-02 14:20:00,44.1,-0.6,29.85,WNW,283,7.6,7.6,15,0.00,,,0.00,VWS V14.01,2013-04-02 18:20:00,
2013-04-02 14:22:00,44.1,-0.6,29.85,SW,217,11.0,11.0,15,0.00,,,0.00,VWS V14.01,2013-04-02 18:22:00,
2013-04-02 14:24:00,43.7,-0.9,29.85,SW,221,8.1,8.1,15,0.00,,,0.00,VWS V14.01,2013-04-02 18:24:00,
2013-04-02 14:25:00,43.5,-1.1,29.85,WNW,290,5.4,5.4,15,0.00,,,0.00,VWS V14.01,2013-04-02 18:25:00,
2013-04-02 14:27:00,43.5,-1.1,29.85,SSE,162,4.5,8.1,15,0.00,,,0.00,VWS V14.01,2013-04-02 18:27:00,
2013-04-02 14:29:00,43.3,-1.2,29.85,West,281,8.1,8.1,15,0.00,,,0.00,VWS V14.01,2013-04-02 18:29:00,
2013-04-02 14:31:00,42.8,-1.6,29.85,NNW,336,2.7,4.0,15,0.00,,,0.00,VWS V14.01,2013-04-02 18:31:00,
2013-04-02 14:33:00,42.4,-0.6,29.85,SW,222,2.7,8.3,16,0.00,,,0.00,VWS V14.01,2013-04-02 18:33:00,
2013-04-02 14:35:00,42.4,-0.6,29.85,WNW,303,4.0,5.8,16,0.00,,,0.00,VWS V14.01,2013-04-02 18:35:00,
2013-04-02 14:36:00,42.4,-0.6,29.85,WNW,298,3.1,8.7,16,0.00,,,0.00,VWS V14.01,2013-04-02 18:36:00,
2013-04-02 14:38:00,42.3,-0.7,29.85,WNW,290,3.6,5.8,16,0.00,,,0.00,VWS V14.01,2013-04-02 18:38:00,
2013-04-02 14:40:00,41.9,-1.0,29.85,WSW,255,7.6,8.1,16,0.00,,,0.00,VWS V14.01,2013-04-02 18:40:00,
2013-04-02 14:42:00,41.9,-1.0,29.85,SW,226,4.0,9.6,16,0.00,,,0.00,VWS V14.01,2013-04-02 18:42:00,
2013-04-02 14:44:00,42.4,-0.6,29.85,WNW,302,3.1,5.8,16,0.00,,,0.00,VWS V14.01,2013-04-02 18:44:00,
2013-04-02 14:46:00,43.0,-1.5,29.85,West,277,3.6,4.9,15,0.00,,,0.00,VWS V14.01,2013-04-02 18:46:00,
2013-04-02 14:48:00,44.1,-0.6,29.85,WSW,254,3.1,5.8,15,0.00,,,0.00,VWS V14.01,2013-04-02 18:48:00,
2013-04-02 14:50:00,44.2,-0.5,29.85,WSW,255,3.1,5.8,15,0.00,,,0.00,VWS V14.01,2013-04-02 18:50:00,
2013-04-02 14:52:00,44.8,0.0,29.85,SSW,203,4.0,4.0,15,0.00,,,0.00,VWS V14.01,2013-04-02 18:52:00,
2013-04-02 14:56:00,45.3,0.4,29.85,WSW,244,5.8,5.8,15,0.00,,,0.00,VWS V14.01,2013-04-02 18:56:00,
2013-04-02 14:59:00,45.3,0.4,29.85,NW,306,5.4,12.8,15,0.00,,,0.00,VWS V14.01,2013-04-02 18:59:00,
2013-04-02 15:02:00,45.0,0.1,29.85,NW,321,8.1,8.1,15,0.00,,,0.00,VWS V14.01,2013-04-02 19:02:00,
2013-04-02 15:04:00,45.1,0.3,29.85,SW,215,13.2,13.2,15,0.00,,,0.00,VWS V14.01,2013-04-02 19:04:00,
2013-04-02 15:06:00,45.1,0.3,29.85,NW,307,5.4,6.7,15,0.00,,,0.00,VWS V14.01,2013-04-02 19:06:00,
2013-04-02 15:07:00,45.1,0.3,29.85,West,267,8.1,8.1,15,0.00,,,0.00,VWS V14.01,2013-04-02 19:07:00,
2013-04-02 15:10:00,45.1,0.3,29.85,West,281,5.8,8.3,15,0.00,,,0.00,VWS V14.01,2013-04-02 19:10:00,
2013-04-02 15:12:00,45.3,0.4,29.85,WNW,283,8.7,9.2,15,0.00,,,0.00,VWS V14.01,2013-04-02 19:12:00,
2013-04-02 15:13:00,45.3,0.4,29.85,WNW,303,5.8,10.1,15,0.00,,,0.00,VWS V14.01,2013-04-02 19:13:00,
2013-04-02 15:15:00,45.1,0.3,29.85,NW,307,2.7,7.6,15,0.00,,,0.00,VWS V14.01,2013-04-02 19:15:00,
2013-04-02 15:18:00,45.0,0.1,29.85,WNW,286,3.6,3.6,15,0.00,,,0.00,VWS V14.01,2013-04-02 19:18:00,
2013-04-02 15:19:00,45.1,0.3,29.85,SW,226,2.2,3.6,15,0.00,,,0.00,VWS V14.01,2013-04-02 19:19:00,
2013-04-02 15:20:00,45.3,0.4,29.85,SW,223,3.1,6.3,15,0.00,,,0.00,VWS V14.01,2013-04-02 19:20:00,
2013-04-02 15:23:00,45.5,0.6,29.85,WSW,251,8.7,13.2,15,0.00,,,0.00,VWS V14.01,2013-04-02 19:23:00,
2013-04-02 15:24:00,45.5,0.6,29.85,NNE,22,3.6,5.8,15,0.00,,,0.00,VWS V14.01,2013-04-02 19:24:00,
2013-04-02 15:25:00,45.5,0.6,29.85,WNW,300,4.9,8.1,15,0.00,,,0.00,VWS V14.01,2013-04-02 19:25:00,
2013-04-02 15:30:00,44.8,0.0,29.85,West,281,5.4,11.4,15,0.00,,,0.00,VWS V14.01,2013-04-02 19:30:00,
2013-04-02 15:31:00,44.6,-0.2,29.85,SW,221,8.1,8.1,15,0.00,,,0.00,VWS V14.01,2013-04-02 19:31:00,
2013-04-02 15:33:00,44.8,0.0,29.85,SSW,211,5.8,5.8,15,0.00,,,0.00,VWS V14.01,2013-04-02 19:33:00,
2013-04-02 15:35:00,45.1,0.3,29.85,South,181,3.6,4.0,15,0.00,,,0.00,VWS V14.01,2013-04-02 19:35:00,
2013-04-02 15:37:00,45.1,0.3,29.85,West,268,5.8,5.8,15,0.00,,,0.00,VWS V14.01,2013-04-02 19:37:00,
2013-04-02 15:38:00,45.1,0.3,29.85,West,261,5.4,8.3,15,0.00,,,0.00,VWS V14.01,2013-04-02 19:38:00,
2013-04-02 15:42:00,45.1,0.3,29.85,West,276,7.6,10.1,15,0.00,,,0.00,VWS V14.01,2013-04-02 19:42:00,
2013-04-02 15:43:00,45.1,0.3,29.85,WNW,295,4.0,8.1,15,0.00,,,0.00,VWS V14.01,2013-04-02 19:43:00,
2013-04-02 15:47:00,44.6,-0.2,29.85,SW,225,4.0,4.0,15,0.00,,,0.00,VWS V14.01,2013-04-02 19:47:00,
2013-04-02 15:48:00,44.4,-0.3,29.85,SW,233,5.8,6.3,15,0.00,,,0.00,VWS V14.01,2013-04-02 19:48:00,
2013-04-02 15:50:00,44.1,-0.6,29.85,SE,136,6.3,6.3,15,0.00,,,0.00,VWS V14.01,2013-04-02 19:50:00,
2013-04-02 15:53:00,44.1,-0.6,29.83,WNW,301,5.8,5.8,15,0.00,,,0.00,VWS V14.01,2013-04-02 19:53:00,
2013-04-02 15:55:00,44.4,-0.3,29.83,WNW,282,3.1,3.1,15,0.00,,,0.00,VWS V14.01,2013-04-02 19:55:00,
2013-04-02 15:57:00,44.8,0.0,29.83,West,260,3.6,5.8,15,0.00,,,0.00,VWS V14.01,2013-04-02 19:57:00,
2013-04-02 15:59:00,45.1,0.3,29.83,WSW,251,5.4,5.4,15,0.00,,,0.00,VWS V14.01,2013-04-02 19:59:00,
2013-04-02 16:02:00,45.3,0.4,29.83,West,278,4.9,5.8,15,0.00,,,0.00,VWS V14.01,2013-04-02 20:02:00,
2013-04-02 16:03:00,45.5,0.6,29.83,West,281,5.8,5.8,15,0.00,,,0.00,VWS V14.01,2013-04-02 20:03:00,
2013-04-02 16:07:00,46.0,1.0,29.83,WSW,249,11.4,14.1,15,0.00,,,0.00,VWS V14.01,2013-04-02 20:07:00,
2013-04-02 16:08:00,46.0,1.0,29.83,South,189,4.0,4.0,15,0.00,,,0.00,VWS V14.01,2013-04-02 20:08:00,
2013-04-02 16:09:00,46.0,1.0,29.83,South,189,6.3,6.3,15,0.00,,,0.00,VWS V14.01,2013-04-02 20:09:00,
2013-04-02 16:13:00,46.2,1.1,29.83,NW,318,4.0,5.4,15,0.00,,,0.00,VWS V14.01,2013-04-02 20:13:00,
2013-04-02 16:14:00,46.4,-0.2,29.83,SW,233,4.0,5.8,14,0.00,,,0.00,VWS V14.01,2013-04-02 20:14:00,
2013-04-02 16:15:00,46.4,-0.2,29.83,NW,308,4.9,10.5,14,0.00,,,0.00,VWS V14.01,2013-04-02 20:15:00,
2013-04-02 16:19:00,46.6,-0.1,29.83,NNW,327,8.1,8.1,14,0.00,,,0.00,VWS V14.01,2013-04-02 20:19:00,
2013-04-02 16:20:00,46.6,-0.1,29.83,WSW,244,5.8,6.3,14,0.00,,,0.00,VWS V14.01,2013-04-02 20:20:00,
2013-04-02 16:21:00,46.8,0.1,29.83,West,271,4.0,6.3,14,0.00,,,0.00,VWS V14.01,2013-04-02 20:21:00,
2013-04-02 16:24:00,46.6,-0.1,29.83,North,1,6.3,6.3,14,0.00,,,0.00,VWS V14.01,2013-04-02 20:24:00,
2013-04-02 16:26:00,46.6,-0.1,29.83,West,270,9.6,9.6,14,0.00,,,0.00,VWS V14.01,2013-04-02 20:26:00,
2013-04-02 16:30:00,46.6,-0.1,29.83,WSW,255,8.3,8.3,14,0.00,,,0.00,VWS V14.01,2013-04-02 20:30:00,
2013-04-02 16:32:00,46.6,-0.1,29.83,NNW,327,5.4,5.4,14,0.00,,,0.00,VWS V14.01,2013-04-02 20:32:00,
2013-04-02 16:35:00,46.4,-0.2,29.83,WNW,295,4.9,4.9,14,0.00,,,0.00,VWS V14.01,2013-04-02 20:35:00,
2013-04-02 16:37:00,46.4,-0.2,29.85,NNW,338,8.1,8.1,14,0.00,,,0.00,VWS V14.01,2013-04-02 20:37:00,
2013-04-02 16:39:00,46.2,1.1,29.85,WSW,249,5.8,8.7,15,0.00,,,0.00,VWS V14.01,2013-04-02 20:39:00,
2013-04-02 16:41:00,46.2,1.1,29.85,WSW,251,4.0,8.3,15,0.00,,,0.00,VWS V14.01,2013-04-02 20:41:00,
2013-04-02 16:43:00,46.0,1.0,29.85,NW,312,5.4,5.4,15,0.00,,,0.00,VWS V14.01,2013-04-02 20:43:00,
2013-04-02 16:45:00,46.0,1.0,29.85,NW,305,2.7,8.1,15,0.00,,,0.00,VWS V14.01,2013-04-02 20:45:00,
2013-04-02 16:47:00,46.2,1.1,29.85,WNW,300,6.3,11.0,15,0.00,,,0.00,VWS V14.01,2013-04-02 20:47:00,
2013-04-02 16:49:00,46.2,1.1,29.85,West,261,5.8,5.8,15,0.00,,,0.00,VWS V14.01,2013-04-02 20:49:00,
2013-04-02 16:52:00,46.0,1.0,29.83,West,265,5.8,6.3,15,0.00,,,0.00,VWS V14.01,2013-04-02 20:52:00,
2013-04-02 16:54:00,46.0,1.0,29.83,WNW,299,5.8,5.8,15,0.00,,,0.00,VWS V14.01,2013-04-02 20:54:00,
2013-04-02 16:55:00,46.2,1.1,29.83,SW,235,4.0,7.6,15,0.00,,,0.00,VWS V14.01,2013-04-02 20:55:00,
2013-04-02 16:58:00,46.2,1.1,29.83,WNW,285,5.4,6.7,15,0.00,,,0.00,VWS V14.01,2013-04-02 20:58:00,
2013-04-02 16:59:00,46.0,1.0,29.83,West,265,3.6,5.4,15,0.00,,,0.00,VWS V14.01,2013-04-02 20:59:00,
2013-04-02 17:01:00,46.2,1.1,29.83,West,274,3.1,8.3,15,0.00,,,0.00,VWS V14.01,2013-04-02 21:01:00,
2013-04-02 17:04:00,46.4,-0.2,29.83,WNW,291,2.2,2.2,14,0.00,,,0.00,VWS V14.01,2013-04-02 21:04:00,
2013-04-02 17:05:00,46.4,-0.2,29.83,NNW,334,4.0,7.6,14,0.00,,,0.00,VWS V14.01,2013-04-02 21:05:00,
2013-04-02 17:06:00,46.4,-0.2,29.83,West,274,5.4,5.4,14,0.00,,,0.00,VWS V14.01,2013-04-02 21:06:00,
2013-04-02 17:10:00,46.2,1.1,29.83,West,279,4.0,6.3,15,0.00,,,0.00,VWS V14.01,2013-04-02 21:10:00,
2013-04-02 17:11:00,46.2,1.1,29.83,WNW,289,3.6,6.7,15,0.00,,,0.00,VWS V14.01,2013-04-02 21:11:00,
2013-04-02 17:12:00,46.2,1.1,29.83,West,278,3.1,3.1,15,0.00,,,0.00,VWS V14.01,2013-04-02 21:12:00,
2013-04-02 17:17:00,46.4,-0.2,29.83,WNW,284,5.4,8.1,14,0.00,,,0.00,VWS V14.01,2013-04-02 21:17:00,
2013-04-02 17:18:00,46.4,-0.2,29.83,WNW,287,6.3,10.1,14,0.00,,,0.00,VWS V14.01,2013-04-02 21:18:00,
2013-04-02 17:23:00,46.2,1.1,29.83,West,266,4.0,6.3,15,0.00,,,0.00,VWS V14.01,2013-04-02 21:23:00,
2013-04-02 17:24:00,46.2,1.1,29.83,NNW,334,2.2,6.3,15,0.00,,,0.00,VWS V14.01,2013-04-02 21:24:00,
2013-04-02 17:30:00,46.2,1.1,29.83,West,266,3.1,10.5,15,0.00,,,0.00,VWS V14.01,2013-04-02 21:30:00,
2013-04-02 17:35:00,45.9,0.8,29.83,NW,308,6.3,7.6,15,0.00,,,0.00,VWS V14.01,2013-04-02 21:35:00,
2013-04-02 17:37:00,45.9,0.8,29.85,WNW,298,2.7,8.7,15,0.00,,,0.00,VWS V14.01,2013-04-02 21:37:00,
2013-04-02 17:40:00,45.9,0.8,29.85,WNW,282,4.0,5.8,15,0.00,,,0.00,VWS V14.01,2013-04-02 21:40:00,
2013-04-02 17:42:00,45.9,0.8,29.85,WSW,238,8.7,10.5,15,0.00,,,0.00,VWS V14.01,2013-04-02 21:42:00,
2013-04-02 17:43:00,45.9,0.8,29.85,West,273,5.8,10.5,15,0.00,,,0.00,VWS V14.01,2013-04-02 21:43:00,
2013-04-02 17:47:00,45.7,0.7,29.85,WNW,288,8.3,8.3,15,0.00,,,0.00,VWS V14.01,2013-04-02 21:47:00,
2013-04-02 17:48:00,45.7,0.7,29.85,WNW,294,10.1,10.1,15,0.00,,,0.00,VWS V14.01,2013-04-02 21:48:00,
2013-04-02 17:49:00,45.5,0.6,29.85,WSW,250,9.6,10.1,15,0.00,,,0.00,VWS V14.01,2013-04-02 21:49:00,
2013-04-02 17:52:00,45.5,0.6,29.85,West,281,2.7,3.1,15,0.00,,,0.00,VWS V14.01,2013-04-02 21:52:00,
2013-04-02 17:55:00,45.5,0.6,29.85,West,270,3.6,10.1,15,0.00,,,0.00,VWS V14.01,2013-04-02 21:55:00,
2013-04-02 17:58:00,45.5,0.6,29.85,SSE,166,4.0,10.1,15,0.00,,,0.00,VWS V14.01,2013-04-02 21:58:00,
2013-04-02 18:00:00,45.5,0.6,29.85,NW,307,5.8,8.7,15,0.00,,,0.00,VWS V14.01,2013-04-02 22:00:00,
2013-04-02 18:03:00,45.3,0.4,29.85,WNW,285,2.7,6.3,15,0.00,,,0.00,VWS V14.01,2013-04-02 22:03:00,
2013-04-02 18:04:00,45.3,0.4,29.85,SW,233,7.6,8.1,15,0.00,,,0.00,VWS V14.01,2013-04-02 22:04:00,
2013-04-02 18:05:00,45.3,0.4,29.85,WSW,247,5.8,10.1,15,0.00,,,0.00,VWS V14.01,2013-04-02 22:05:00,
2013-04-02 18:08:00,45.3,0.4,29.85,NNW,329,5.8,5.8,15,0.00,,,0.00,VWS V14.01,2013-04-02 22:08:00,
2013-04-02 18:09:00,45.3,0.4,29.85,West,281,3.6,5.8,15,0.00,,,0.00,VWS V14.01,2013-04-02 22:09:00,
2013-04-02 18:10:00,45.3,0.4,29.85,SW,235,2.7,7.6,15,0.00,,,0.00,VWS V14.01,2013-04-02 22:10:00,
2013-04-02 18:14:00,45.3,0.4,29.85,WNW,287,6.3,14.1,15,0.00,,,0.00,VWS V14.01,2013-04-02 22:14:00,
2013-04-02 18:16:00,45.1,0.3,29.85,WNW,283,4.9,7.2,15,0.00,,,0.00,VWS V14.01,2013-04-02 22:16:00,
2013-04-02 18:17:00,45.1,0.3,29.85,SW,224,3.1,3.1,15,0.00,,,0.00,VWS V14.01,2013-04-02 22:17:00,
2013-04-02 18:19:00,44.8,0.0,29.85,WNW,284,4.9,10.5,15,0.00,,,0.00,VWS V14.01,2013-04-02 22:19:00,
2013-04-02 18:22:00,44.6,-0.2,29.85,WNW,287,8.3,8.7,15,0.00,,,0.00,VWS V14.01,2013-04-02 22:22:00,
2013-04-02 18:24:00,44.6,-0.2,29.85,WNW,294,3.6,7.6,15,0.00,,,0.00,VWS V14.01,2013-04-02 22:24:00,
2013-04-02 18:28:00,44.2,-0.5,29.85,WNW,291,4.0,8.1,15,0.00,,,0.00,VWS V14.01,2013-04-02 22:28:00,
2013-04-02 18:29:00,44.2,-0.5,29.85,West,262,3.1,6.3,15,0.00,,,0.00,VWS V14.01,2013-04-02 22:29:00,
2013-04-02 18:30:00,44.2,-0.5,29.85,West,274,3.6,7.2,15,0.00,,,0.00,VWS V14.01,2013-04-02 22:30:00,
2013-04-02 18:34:00,44.1,-0.6,29.85,WSW,241,4.9,6.3,15,0.00,,,0.00,VWS V14.01,2013-04-02 22:34:00,
2013-04-02 18:35:00,44.1,-0.6,29.85,NW,307,6.3,12.3,15,0.00,,,0.00,VWS V14.01,2013-04-02 22:35:00,
2013-04-02 18:38:00,43.9,-0.8,29.85,West,277,5.8,8.7,15,0.00,,,0.00,VWS V14.01,2013-04-02 22:38:00,
2013-04-02 18:40:00,43.7,-0.9,29.85,WNW,287,6.3,6.3,15,0.00,,,0.00,VWS V14.01,2013-04-02 22:40:00,
2013-04-02 18:42:00,43.5,-1.1,29.85,WSW,245,3.1,8.7,15,0.00,,,0.00,VWS V14.01,2013-04-02 22:42:00,
2013-04-02 18:45:00,43.0,-1.5,29.85,WNW,287,3.1,4.9,15,0.00,,,0.00,VWS V14.01,2013-04-02 22:45:00,
2013-04-02 18:47:00,42.8,-1.6,29.85,WNW,296,4.0,10.5,15,0.00,,,0.00,VWS V14.01,2013-04-02 22:47:00,
2013-04-02 18:49:00,42.4,-0.6,29.85,WNW,297,7.2,10.1,16,0.00,,,0.00,VWS V14.01,2013-04-02 22:49:00,
2013-04-02 18:51:00,42.4,-0.6,29.85,West,265,8.3,10.1,16,0.00,,,0.00,VWS V14.01,2013-04-02 22:51:00,
2013-04-02 18:55:00,42.1,-0.9,29.88,WSW,257,4.0,4.0,16,0.00,,,0.00,VWS V14.01,2013-04-02 22:55:00,
2013-04-02 18:57:00,41.7,-1.2,29.88,WSW,254,5.8,8.1,16,0.00,,,0.00,VWS V14.01,2013-04-02 22:57:00,
2013-04-02 19:00:00,41.5,-1.3,29.88,West,277,7.6,10.5,16,0.00,,,0.00,VWS V14.01,2013-04-02 23:00:00,
2013-04-02 19:01:00,41.5,-1.3,29.88,West,277,7.2,8.1,16,0.00,,,0.00,VWS V14.01,2013-04-02 23:01:00,
2013-04-02 19:02:00,41.5,-1.3,29.88,NW,318,3.6,5.8,16,0.00,,,0.00,VWS V14.01,2013-04-02 23:02:00,
2013-04-02 19:07:00,41.2,-1.6,29.88,WNW,283,4.0,9.6,16,0.00,,,0.00,VWS V14.01,2013-04-02 23:07:00,
2013-04-02 19:09:00,41.2,-1.6,29.88,WNW,284,5.4,5.4,16,0.00,,,0.00,VWS V14.01,2013-04-02 23:09:00,
2013-04-02 19:13:00,41.0,-1.7,29.88,West,281,4.0,4.9,16,0.00,,,0.00,VWS V14.01,2013-04-02 23:13:00,
2013-04-02 19:14:00,41.0,-1.7,29.88,West,260,6.3,6.3,16,0.00,,,0.00,VWS V14.01,2013-04-02 23:14:00,
2013-04-02 19:15:00,41.0,-1.7,29.88,NW,309,4.0,4.0,16,0.00,,,0.00,VWS V14.01,2013-04-02 23:15:00,
2013-04-02 19:19:00,40.8,-1.9,29.88,WNW,282,4.9,4.9,16,0.00,,,0.00,VWS V14.01,2013-04-02 23:19:00,
2013-04-02 19:20:00,40.6,-2.0,29.88,WSW,241,4.0,8.3,16,0.00,,,0.00,VWS V14.01,2013-04-02 23:20:00,
2013-04-02 19:24:00,40.5,-2.2,29.88,WSW,257,4.0,6.3,16,0.00,,,0.00,VWS V14.01,2013-04-02 23:24:00,
2013-04-02 19:28:00,40.3,-2.3,29.88,West,275,4.9,6.3,16,0.00,,,0.00,VWS V14.01,2013-04-02 23:28:00,
2013-04-02 19:29:00,40.3,-2.3,29.88,West,268,3.6,4.0,16,0.00,,,0.00,VWS V14.01,2013-04-02 23:29:00,
2013-04-02 19:34:00,39.9,-2.6,29.88,NNE,31,3.6,4.0,16,0.00,,,0.00,VWS V14.01,2013-04-02 23:34:00,
2013-04-02 19:37:00,39.9,-2.6,29.88,West,273,7.6,7.6,16,0.00,,,0.00,VWS V14.01,2013-04-02 23:37:00,
2013-04-02 19:39:00,39.7,-2.8,29.88,SW,228,5.4,5.4,16,0.00,,,0.00,VWS V14.01,2013-04-02 23:39:00,
2013-04-02 19:41:00,39.7,-2.8,29.88,WSW,239,3.1,3.1,16,0.00,,,0.00,VWS V14.01,2013-04-02 23:41:00,
2013-04-02 19:42:00,39.7,-2.8,29.88,WSW,254,4.0,4.0,16,0.00,,,0.00,VWS V14.01,2013-04-02 23:42:00,
2013-04-02 19:45:00,39.6,-2.9,29.88,WNW,285,3.1,4.9,16,0.00,,,0.00,VWS V14.01,2013-04-02 23:45:00,
2013-04-02 19:46:00,39.6,-2.9,29.88,WNW,286,5.8,5.8,16,0.00,,,0.00,VWS V14.01,2013-04-02 23:46:00,
2013-04-02 19:49:00,39.4,-3.1,29.88,SW,236,3.6,8.1,16,0.00,,,0.00,VWS V14.01,2013-04-02 23:49:00,
2013-04-02 19:52:00,39.2,-3.2,29.88,WNW,293,2.7,4.0,16,0.00,,,0.00,VWS V14.01,2013-04-02 23:52:00,
2013-04-02 19:54:00,39.2,-3.2,29.88,WNW,294,3.1,4.0,16,0.00,,,0.00,VWS V14.01,2013-04-02 23:54:00,
2013-04-02 19:57:00,39.2,-3.2,29.88,West,264,3.6,3.6,16,0.00,,,0.00,VWS V14.01,2013-04-02 23:57:00,
2013-04-02 19:59:00,39.0,-3.4,29.88,WNW,287,2.2,2.7,16,0.00,,,0.00,VWS V14.01,2013-04-02 23:59:00,
2013-04-02 20:03:00,38.8,-3.5,29.88,WSW,245,4.0,5.4,16,0.00,,,0.00,VWS V14.01,2013-04-03 00:03:00,
2013-04-02 20:04:00,38.8,-3.5,29.88,West,270,2.7,4.0,16,0.00,,,0.00,VWS V14.01,2013-04-03 00:04:00,
2013-04-02 20:07:00,38.7,-3.7,29.88,WNW,296,3.1,4.0,16,0.00,,,0.00,VWS V14.01,2013-04-03 00:07:00,
2013-04-02 20:08:00,38.7,-3.7,29.88,West,265,4.9,5.8,16,0.00,,,0.00,VWS V14.01,2013-04-03 00:08:00,
2013-04-02 20:09:00,38.5,-3.8,29.88,West,274,2.7,3.6,16,0.00,,,0.00,VWS V14.01,2013-04-03 00:09:00,
2013-04-02 20:12:00,38.5,-3.8,29.88,WNW,297,3.6,5.8,16,0.00,,,0.00,VWS V14.01,2013-04-03 00:12:00,
2013-04-02 20:15:00,38.5,-3.8,29.88,NW,306,2.7,4.0,16,0.00,,,0.00,VWS V14.01,2013-04-03 00:15:00,
2013-04-02 20:16:00,38.5,-3.8,29.88,West,274,3.1,4.9,16,0.00,,,0.00,VWS V14.01,2013-04-03 00:16:00,
2013-04-02 20:17:00,38.3,-4.0,29.88,SW,223,3.1,3.6,16,0.00,,,0.00,VWS V14.01,2013-04-03 00:17:00,
2013-04-02 20:20:00,38.3,-4.0,29.88,WNW,287,0.0,4.0,16,0.00,,,0.00,VWS V14.01,2013-04-03 00:20:00,
2013-04-02 20:22:00,38.3,-4.0,29.91,WSW,255,4.0,4.0,16,0.00,,,0.00,VWS V14.01,2013-04-03 00:22:00,
2013-04-02 20:23:00,38.1,-4.1,29.91,West,266,4.9,4.9,16,0.00,,,0.00,VWS V14.01,2013-04-03 00:23:00,
2013-04-02 20:27:00,38.1,-4.1,29.91,West,274,2.7,4.9,16,0.00,,,0.00,VWS V14.01,2013-04-03 00:27:00,
2013-04-02 20:29:00,38.1,-4.1,29.91,West,271,2.7,2.7,16,0.00,,,0.00,VWS V14.01,2013-04-03 00:29:00,
2013-04-02 20:30:00,37.9,-4.2,29.91,WNW,297,4.0,4.9,16,0.00,,,0.00,VWS V14.01,2013-04-03 00:30:00,
2013-04-02 20:32:00,37.9,-4.2,29.91,West,263,3.1,3.1,16,0.00,,,0.00,VWS V14.01,2013-04-03 00:32:00,
2013-04-02 20:35:00,37.9,-4.2,29.91,West,268,2.7,4.0,16,0.00,,,0.00,VWS V14.01,2013-04-03 00:35:00,
2013-04-02 20:38:00,37.8,-4.4,29.91,West,266,2.7,3.1,16,0.00,,,0.00,VWS V14.01,2013-04-03 00:38:00,
2013-04-02 20:40:00,37.8,-4.4,29.91,West,276,0.0,0.0,16,0.00,,,0.00,VWS V14.01,2013-04-03 00:40:00,
2013-04-02 20:43:00,37.6,-4.5,29.91,West,259,4.0,4.0,16,0.00,,,0.00,VWS V14.01,2013-04-03 00:43:00,
2013-04-02 20:44:00,37.6,-4.5,29.91,WNW,283,2.7,4.0,16,0.00,,,0.00,VWS V14.01,2013-04-03 00:44:00,
2013-04-02 20:47:00,37.4,-4.7,29.91,WNW,297,0.0,2.7,16,0.00,,,0.00,VWS V14.01,2013-04-03 00:47:00,
2013-04-02 20:48:00,37.4,-4.7,29.91,WSW,241,3.1,3.1,16,0.00,,,0.00,VWS V14.01,2013-04-03 00:48:00,
2013-04-02 20:49:00,37.4,-4.7,29.91,West,277,3.6,3.6,16,0.00,,,0.00,VWS V14.01,2013-04-03 00:49:00,
2013-04-02 20:52:00,37.2,-3.6,29.91,SW,230,4.0,4.0,17,0.00,,,0.00,VWS V14.01,2013-04-03 00:52:00,
2013-04-02 20:53:00,37.2,-3.6,29.91,West,274,3.1,3.1,17,0.00,,,0.00,VWS V14.01,2013-04-03 00:53:00,
2013-04-02 20:54:00,37.2,-3.6,29.91,West,274,2.2,3.1,17,0.00,,,0.00,VWS V14.01,2013-04-03 00:54:00,
2013-04-02 20:58:00,37.0,-3.7,29.91,West,268,3.1,5.8,17,0.00,,,0.00,VWS V14.01,2013-04-03 00:58:00,
2013-04-02 20:59:00,37.0,-3.7,29.91,West,270,2.7,4.0,17,0.00,,,0.00,VWS V14.01,2013-04-03 00:59:00,
2013-04-02 21:04:00,37.0,-3.7,29.91,WNW,298,3.1,3.6,17,0.00,,,0.00,VWS V14.01,2013-04-03 01:04:00,
2013-04-02 21:09:00,37.0,-3.7,29.91,WNW,290,2.2,4.9,17,0.00,,,0.00,VWS V14.01,2013-04-03 01:09:00,
2013-04-02 21:10:00,37.0,-3.7,29.91,SW,231,2.7,2.7,17,0.00,,,0.00,VWS V14.01,2013-04-03 01:10:00,
2013-04-02 21:14:00,37.0,-3.7,29.91,WSW,244,3.1,4.9,17,0.00,,,0.00,VWS V14.01,2013-04-03 01:14:00,
2013-04-02 21:15:00,37.0,-3.7,29.91,WSW,248,3.1,3.1,17,0.00,,,0.00,VWS V14.01,2013-04-03 01:15:00,
2013-04-02 21:20:00,36.9,-3.9,29.91,WNW,287,2.2,3.6,17,0.00,,,0.00,VWS V14.01,2013-04-03 01:20:00,
2013-04-02 21:21:00,36.9,-3.9,29.91,West,268,2.2,2.7,17,0.00,,,0.00,VWS V14.01,2013-04-03 01:21:00,
2013-04-02 21:25:00,36.7,-4.0,29.91,West,277,2.7,3.6,17,0.00,,,0.00,VWS V14.01,2013-04-03 01:25:00,
2013-04-02 21:27:00,36.7,-4.0,29.91,West,271,4.0,4.0,17,0.00,,,0.00,VWS V14.01,2013-04-03 01:27:00,
2013-04-02 21:29:00,36.7,-4.0,29.91,West,266,3.6,4.0,17,0.00,,,0.00,VWS V14.01,2013-04-03 01:29:00,
2013-04-02 21:31:00,36.5,-4.2,29.91,West,276,2.2,2.7,17,0.00,,,0.00,VWS V14.01,2013-04-03 01:31:00,
2013-04-02 21:32:00,36.5,-4.2,29.91,WSW,258,0.0,3.1,17,0.00,,,0.00,VWS V14.01,2013-04-03 01:32:00,
2013-04-02 21:34:00,36.5,-4.2,29.91,West,266,2.2,2.7,17,0.00,,,0.00,VWS V14.01,2013-04-03 01:34:00,
2013-04-02 21:38:00,36.3,-4.3,29.91,WSW,248,2.7,3.1,17,0.00,,,0.00,VWS V14.01,2013-04-03 01:38:00,
2013-04-02 21:39:00,36.3,-4.3,29.91,WSW,248,2.2,2.7,17,0.00,,,0.00,VWS V14.01,2013-04-03 01:39:00,
2013-04-02 21:40:00,36.3,-4.3,29.91,WSW,248,0.0,2.2,17,0.00,,,0.00,VWS V14.01,2013-04-03 01:40:00,
2013-04-02 21:44:00,36.1,-4.5,29.91,WSW,254,0.0,0.0,17,0.00,,,0.00,VWS V14.01,2013-04-03 01:44:00,
2013-04-02 21:47:00,36.0,-4.6,29.91,West,273,2.7,2.7,17,0.00,,,0.00,VWS V14.01,2013-04-03 01:47:00,
2013-04-02 21:49:00,35.8,-4.8,29.91,West,271,2.2,2.7,17,0.00,,,0.00,VWS V14.01,2013-04-03 01:49:00,
2013-04-02 21:50:00,35.8,-4.8,29.91,WSW,250,2.2,3.1,17,0.00,,,0.00,VWS V14.01,2013-04-03 01:50:00,
2013-04-02 21:52:00,35.8,-4.8,29.94,WSW,251,0.0,0.0,17,0.00,,,0.00,VWS V14.01,2013-04-03 01:52:00,
2013-04-02 21:54:00,35.6,-4.9,29.94,WSW,256,0.0,0.0,17,0.00,,,0.00,VWS V14.01,2013-04-03 01:54:00,
2013-04-02 21:55:00,35.6,-4.9,29.94,WSW,256,0.0,0.0,17,0.00,,,0.00,VWS V14.01,2013-04-03 01:55:00,
2013-04-02 21:58:00,35.4,-5.1,29.94,WSW,256,0.0,0.0,17,0.00,,,0.00,VWS V14.01,2013-04-03 01:58:00,
2013-04-02 22:00:00,35.4,-5.1,29.94,WSW,256,0.0,0.0,17,0.00,,,0.00,VWS V14.01,2013-04-03 02:00:00,
2013-04-02 22:02:00,35.2,-5.2,29.94,WSW,250,0.0,0.0,17,0.00,,,0.00,VWS V14.01,2013-04-03 02:02:00,
2013-04-02 22:03:00,35.2,-5.2,29.94,WSW,250,0.0,0.0,17,0.00,,,0.00,VWS V14.01,2013-04-03 02:03:00,
2013-04-02 22:05:00,35.2,-5.2,29.94,WSW,250,0.0,0.0,17,0.00,,,0.00,VWS V14.01,2013-04-03 02:05:00,
2013-04-02 22:08:00,35.1,-5.3,29.94,WSW,250,0.0,0.0,17,0.00,,,0.00,VWS V14.01,2013-04-03 02:08:00,
2013-04-02 22:09:00,35.1,-5.3,29.94,WSW,250,0.0,0.0,17,0.00,,,0.00,VWS V14.01,2013-04-03 02:09:00,
2013-04-02 22:11:00,34.9,-5.5,29.94,WSW,250,0.0,0.0,17,0.00,,,0.00,VWS V14.01,2013-04-03 02:11:00,
2013-04-02 22:13:00,34.7,-5.6,29.94,WSW,250,0.0,0.0,17,0.00,,,0.00,VWS V14.01,2013-04-03 02:13:00,
2013-04-02 22:15:00,34.5,-5.8,29.94,WSW,250,0.0,0.0,17,0.00,,,0.00,VWS V14.01,2013-04-03 02:15:00,
2013-04-02 22:18:00,34.5,-5.8,29.94,WSW,250,0.0,0.0,17,0.00,,,0.00,VWS V14.01,2013-04-03 02:18:00,
2013-04-02 22:22:00,34.3,-5.9,29.94,WSW,250,0.0,0.0,17,0.00,,,0.00,VWS V14.01,2013-04-03 02:22:00,
2013-04-02 22:23:00,34.3,-5.9,29.94,WSW,250,0.0,0.0,17,0.00,,,0.00,VWS V14.01,2013-04-03 02:23:00,
2013-04-02 22:25:00,34.3,-5.9,29.94,WSW,250,0.0,0.0,17,0.00,,,0.00,VWS V14.01,2013-04-03 02:25:00,
2013-04-02 22:27:00,34.2,-6.1,29.94,WSW,251,0.0,0.0,17,0.00,,,0.00,VWS V14.01,2013-04-03 02:27:00,
2013-04-02 22:28:00,34.2,-6.1,29.94,WSW,250,0.0,0.0,17,0.00,,,0.00,VWS V14.01,2013-04-03 02:28:00,
2013-04-02 22:30:00,34.0,-6.2,29.94,WSW,250,0.0,0.0,17,0.00,,,0.00,VWS V14.01,2013-04-03 02:30:00,
2013-04-02 22:34:00,33.8,-6.4,29.94,WSW,250,0.0,0.0,17,0.00,,,0.00,VWS V14.01,2013-04-03 02:34:00,
2013-04-02 22:36:00,33.8,-6.4,29.94,WSW,250,0.0,0.0,17,0.00,,,0.00,VWS V14.01,2013-04-03 02:36:00,
2013-04-02 22:37:00,33.6,-5.3,29.91,WSW,251,0.0,0.0,18,0.00,,,0.00,VWS V14.01,2013-04-03 02:37:00,
2013-04-02 22:39:00,33.6,-5.3,29.91,WSW,250,0.0,0.0,18,0.00,,,0.00,VWS V14.01,2013-04-03 02:39:00,
2013-04-02 22:42:00,33.3,-5.7,29.91,WSW,250,0.0,0.0,18,0.00,,,0.00,VWS V14.01,2013-04-03 02:42:00,
2013-04-02 22:45:00,33.1,-5.8,29.91,WSW,251,0.0,0.0,18,0.00,,,0.00,VWS V14.01,2013-04-03 02:45:00,
2013-04-02 22:47:00,32.7,-6.1,29.91,WSW,251,0.0,0.0,18,0.00,,,0.00,VWS V14.01,2013-04-03 02:47:00,
2013-04-02 22:49:00,32.7,-6.1,29.91,WSW,250,0.0,0.0,18,0.00,,,0.00,VWS V14.01,2013-04-03 02:49:00,
2013-04-02 22:50:00,32.5,-6.2,29.91,WSW,250,0.0,0.0,18,0.00,,,0.00,VWS V14.01,2013-04-03 02:50:00,
2013-04-02 22:53:00,32.4,-6.4,29.94,WSW,251,0.0,0.0,18,0.00,,,0.00,VWS V14.01,2013-04-03 02:53:00,
2013-04-02 22:54:00,32.2,-6.6,29.94,WSW,250,0.0,0.0,18,0.00,,,0.00,VWS V14.01,2013-04-03 02:54:00,
2013-04-02 22:56:00,32.2,-6.6,29.94,WSW,250,0.0,0.0,18,0.00,,,0.00,VWS V14.01,2013-04-03 02:56:00,
2013-04-02 22:59:00,32.0,-6.7,29.94,WSW,250,0.0,0.0,18,0.00,,,0.00,VWS V14.01,2013-04-03 02:59:00,
2013-04-02 23:00:00,32.0,-6.7,29.94,WSW,250,0.0,0.0,18,0.00,,,0.00,VWS V14.01,2013-04-03 03:00:00,
2013-04-02 23:02:00,32.2,-6.6,29.94,WSW,250,0.0,0.0,18,0.00,,,0.00,VWS V14.01,2013-04-03 03:02:00,
2013-04-02 23:06:00,32.0,-6.7,29.94,WSW,247,0.0,0.0,18,0.00,,,0.00,VWS V14.01,2013-04-03 03:06:00,
2013-04-02 23:07:00,32.0,-6.7,29.94,WSW,247,0.0,0.0,18,0.00,,,0.00,VWS V14.01,2013-04-03 03:07:00,
2013-04-02 23:09:00,32.2,-6.6,29.94,WSW,247,0.0,0.0,18,0.00,,,0.00,VWS V14.01,2013-04-03 03:09:00,
2013-04-02 23:12:00,32.2,-6.6,29.94,WSW,247,0.0,0.0,18,0.00,,,0.00,VWS V14.01,2013-04-03 03:12:00,
2013-04-02 23:13:00,32.4,-6.4,29.94,WSW,247,0.0,0.0,18,0.00,,,0.00,VWS V14.01,2013-04-03 03:13:00,
2013-04-02 23:14:00,32.4,-6.4,29.94,SW,228,0.0,0.0,18,0.00,,,0.00,VWS V14.01,2013-04-03 03:14:00,
2013-04-02 23:18:00,32.4,-6.4,29.94,SW,228,0.0,0.0,18,0.00,,,0.00,VWS V14.01,2013-04-03 03:18:00,
2013-04-02 23:20:00,32.4,-6.4,29.94,SW,228,0.0,0.0,18,0.00,,,0.00,VWS V14.01,2013-04-03 03:20:00,
2013-04-02 23:23:00,32.2,-6.6,29.94,SW,228,0.0,0.0,18,0.00,,,0.00,VWS V14.01,2013-04-03 03:23:00,
2013-04-02 23:24:00,32.2,-6.6,29.94,SW,228,0.0,0.0,18,0.00,,,0.00,VWS V14.01,2013-04-03 03:24:00,
2013-04-02 23:25:00,32.2,-6.6,29.94,SW,228,0.0,0.0,18,0.00,,,0.00,VWS V14.01,2013-04-03 03:25:00,
2013-04-02 23:29:00,32.0,-6.7,29.94,SW,228,0.0,0.0,18,0.00,,,0.00,VWS V14.01,2013-04-03 03:29:00,
2013-04-02 23:31:00,32.0,-6.7,29.94,SW,228,0.0,0.0,18,0.00,,,0.00,VWS V14.01,2013-04-03 03:31:00,
2013-04-02 23:32:00,31.8,-6.8,29.94,SW,228,0.0,0.0,18,0.00,,,0.00,VWS V14.01,2013-04-03 03:32:00,
2013-04-02 23:34:00,31.8,-6.8,29.94,SW,228,0.0,0.0,18,0.00,,,0.00,VWS V14.01,2013-04-03 03:34:00,
2013-04-02 23:37:00,31.6,-7.0,29.94,SW,228,0.0,0.0,18,0.00,,,0.00,VWS V14.01,2013-04-03 03:37:00,
2013-04-02 23:40:00,31.5,-7.2,29.94,West,270,0.0,0.0,18,0.00,,,0.00,VWS V14.01,2013-04-03 03:40:00,
2013-04-02 23:42:00,31.5,-7.2,29.94,West,278,0.0,0.0,18,0.00,,,0.00,VWS V14.01,2013-04-03 03:42:00,
2013-04-02 23:47:00,32.0,-6.7,29.94,WSW,251,2.7,3.1,18,0.00,,,0.00,VWS V14.01,2013-04-03 03:47:00,
2013-04-02 23:49:00,32.2,-6.6,29.94,WSW,254,4.0,5.8,18,0.00,,,0.00,VWS V14.01,2013-04-03 03:49:00,
2013-04-02 23:53:00,33.1,-5.8,29.94,SSW,199,3.1,4.0,18,0.00,,,0.00,VWS V14.01,2013-04-03 03:53:00,
2013-04-02 23:54:00,33.3,-5.7,29.94,WSW,254,2.2,4.0,18,0.00,,,0.00,VWS V14.01,2013-04-03 03:54:00,
2013-04-02 23:56:00,33.4,-5.5,29.94,SW,233,3.1,4.9,18,0.00,,,0.00,VWS V14.01,2013-04-03 03:56:00,
2013-04-02 23:58:00,33.6,-5.3,29.94,WNW,292,5.4,5.4,18,0.00,,,0.00,VWS V14.01,2013-04-03 03:58:00,